| time (UTC) | temp F | wind direction | speed MPH | gust MPH | rain 1hr in | rain 24hr in | rain mn in | humidity % | barometer mb |
| 20260507024103 | 55 | 329 | 1.0 | 2.0 | 0.03 | 0.56 | 0.56 | 95 | 1012.3 |
| 20260507024003 | 55 | 329 | 0.0 | 2.0 | 0.03 | 0.56 | 0.56 | 95 | 1012.3 |
| 20260507023903 | 55 | 329 | 0.0 | 2.0 | 0.03 | 0.56 | 0.56 | 95 | 1012.4 |
| 20260507023803 | 55 | 328 | 0.0 | 2.0 | 0.04 | 0.56 | 0.56 | 95 | 1012.4 |
| 20260507023703 | 55 | 331 | 0.0 | 2.0 | 0.04 | 0.56 | 0.56 | 95 | 1012.4 |
| 20260507023604 | 55 | 336 | 0.0 | 2.0 | 0.04 | 0.56 | 0.56 | 95 | 1012.4 |
| 20260507023518 | 55 | 341 | 0.0 | 2.0 | 0.04 | 0.56 | 0.56 | 95 | 1012.4 |
| 20260507023504 | 55 | 342 | 0.0 | 2.0 | 0.04 | 0.56 | 0.56 | 95 | 1012.4 |
| 20260507023404 | 55 | 343 | 1.0 | 2.0 | 0.04 | 0.56 | 0.56 | 95 | 1012.5 |
| 20260507023203 | 55 | 344 | 1.0 | 3.0 | 0.04 | 0.56 | 0.56 | 95 | 1012.6 |
| 20260507023117 | 55 | 343 | 1.0 | 3.0 | 0.04 | 0.56 | 0.56 | 95 | 1012.6 |
| 20260507023104 | 55 | 342 | 1.0 | 3.0 | 0.04 | 0.56 | 0.56 | 95 | 1012.6 |
| 20260507023003 | 55 | 336 | 1.0 | 3.0 | 0.04 | 0.56 | 0.56 | 95 | 1012.6 |
| 20260507022803 | 55 | 324 | 1.0 | 3.0 | 0.04 | 0.56 | 0.56 | 95 | 1012.5 |
| 20260507022703 | 55 | 272 | 1.0 | 3.0 | 0.04 | 0.56 | 0.56 | 95 | 1012.5 |
| 20260507022604 | 55 | 214 | 1.0 | 3.0 | 0.04 | 0.56 | 0.56 | 95 | 1012.5 |
| 20260507022518 | 55 | 200 | 1.0 | 3.0 | 0.04 | 0.56 | 0.56 | 95 | 1012.5 |
| 20260507022503 | 55 | 196 | 1.0 | 3.0 | 0.04 | 0.56 | 0.56 | 95 | 1012.5 |
| 20260507022404 | 55 | 186 | 0.0 | 3.0 | 0.04 | 0.56 | 0.56 | 95 | 1012.5 |
| 20260507022203 | 55 | 181 | 0.0 | 2.0 | 0.04 | 0.56 | 0.56 | 95 | 1012.4 |
| 20260507022103 | 55 | 181 | 0.0 | 2.0 | 0.04 | 0.56 | 0.56 | 95 | 1012.5 |
| 20260507022004 | 55 | 181 | 0.0 | 2.0 | 0.04 | 0.56 | 0.56 | 95 | 1012.5 |
| 20260507021903 | 55 | 0 | 0.0 | 0.0 | 0.04 | 0.56 | 0.56 | 95 | 1012.4 |
| 20260507021803 | 55 | 0 | 0.0 | 0.0 | 0.04 | 0.56 | 0.56 | 95 | 1012.5 |
| 20260507021703 | 55 | 0 | 0.0 | 0.0 | 0.04 | 0.56 | 0.56 | 95 | 1012.5 |
| 20260507021603 | 55 | 0 | 0.0 | 0.0 | 0.04 | 0.56 | 0.56 | 95 | 1012.5 |
| 20260507021504 | 55 | 0 | 0.0 | 0.0 | 0.05 | 0.56 | 0.56 | 95 | 1012.5 |
| 20260507021404 | 55 | 0 | 0.0 | 0.0 | 0.05 | 0.56 | 0.56 | 95 | 1012.5 |
| 20260507021203 | 55 | 0 | 0.0 | 0.0 | 0.05 | 0.56 | 0.56 | 95 | 1012.4 |
| 20260507021104 | 55 | 0 | 0.0 | 0.0 | 0.05 | 0.56 | 0.56 | 95 | 1012.5 |
| 20260507021003 | 55 | 0 | 0.0 | 0.0 | 0.05 | 0.56 | 0.56 | 95 | 1012.6 |
| 20260507020904 | 55 | 0 | 0.0 | 0.0 | 0.05 | 0.56 | 0.56 | 95 | 1012.6 |
| 20260507020803 | 56 | 0 | 0.0 | 0.0 | 0.04 | 0.55 | 0.55 | 95 | 1012.7 |
| 20260507020704 | 55 | 0 | 0.0 | 0.0 | 0.04 | 0.55 | 0.55 | 95 | 1012.7 |
| 20260507020603 | 55 | 0 | 0.0 | 0.0 | 0.04 | 0.55 | 0.55 | 95 | 1012.7 |
| 20260507020503 | 55 | 0 | 0.0 | 0.0 | 0.03 | 0.54 | 0.54 | 95 | 1012.6 |
| 20260507020403 | 55 | 0 | 0.0 | 0.0 | 0.03 | 0.54 | 0.54 | 95 | 1012.6 |
| 20260507020303 | 55 | 0 | 0.0 | 0.0 | 0.03 | 0.54 | 0.54 | 95 | 1012.9 |
| 20260507020103 | 55 | 0 | 0.0 | 0.0 | 0.03 | 0.54 | 0.54 | 95 | 1013.3 |
| 20260507020003 | 55 | 0 | 0.0 | 0.0 | 0.03 | 0.54 | 0.54 | 95 | 1013.3 |
| 20260507015903 | 55 | 0 | 0.0 | 0.0 | 0.03 | 0.54 | 0.54 | 95 | 1013.3 |
| 20260507015803 | 55 | 0 | 0.0 | 0.0 | 0.03 | 0.54 | 0.54 | 94 | 1013.1 |
| 20260507015704 | 55 | 0 | 0.0 | 0.0 | 0.03 | 0.54 | 0.54 | 95 | 1013.1 |
| 20260507015603 | 55 | 0 | 0.0 | 0.0 | 0.03 | 0.54 | 0.54 | 95 | 1013.0 |
| 20260507015503 | 55 | 0 | 0.0 | 0.0 | 0.03 | 0.54 | 0.54 | 95 | 1013.0 |
| 20260507015404 | 55 | 0 | 0.0 | 0.0 | 0.03 | 0.54 | 0.54 | 95 | 1013.0 |
| 20260507015204 | 56 | 0 | 0.0 | 0.0 | 0.03 | 0.54 | 0.54 | 95 | 1013.0 |
| 20260507015104 | 55 | 0 | 0.0 | 0.0 | 0.03 | 0.54 | 0.54 | 95 | 1013.0 |
| 20260507015003 | 56 | 0 | 0.0 | 0.0 | 0.03 | 0.55 | 0.54 | 95 | 1012.9 |
| 20260507014904 | 56 | 0 | 0.0 | 0.0 | 0.03 | 0.55 | 0.54 | 94 | 1012.9 |
| 20260507014804 | 56 | 0 | 0.0 | 0.0 | 0.03 | 0.55 | 0.54 | 95 | 1012.9 |
| 20260507014704 | 56 | 0 | 0.0 | 0.0 | 0.03 | 0.55 | 0.54 | 94 | 1013.1 |
| 20260507014603 | 56 | 0 | 0.0 | 0.0 | 0.02 | 0.54 | 0.53 | 94 | 1013.1 |
| 20260507014504 | 56 | 0 | 0.0 | 0.0 | 0.02 | 0.54 | 0.53 | 94 | 1013.3 |
| 20260507014404 | 56 | 0 | 0.0 | 0.0 | 0.02 | 0.54 | 0.53 | 94 | 1013.3 |
| 20260507014303 | 56 | 0 | 0.0 | 0.0 | 0.02 | 0.54 | 0.53 | 94 | 1013.2 |
| 20260507014203 | 56 | 0 | 0.0 | 0.0 | 0.02 | 0.54 | 0.53 | 94 | 1013.3 |
| 20260507014003 | 56 | 0 | 0.0 | 0.0 | 0.02 | 0.54 | 0.53 | 94 | 1013.0 |
| 20260507013903 | 56 | 0 | 0.0 | 0.0 | 0.02 | 0.54 | 0.53 | 94 | 1013.3 |
| 20260507013804 | 56 | 0 | 0.0 | 0.0 | 0.01 | 0.53 | 0.53 | 94 | 1013.3 |
| 20260507013703 | 56 | 0 | 0.0 | 0.0 | 0.01 | 0.53 | 0.52 | 94 | 1013.6 |
| 20260507013603 | 56 | 0 | 0.0 | 0.0 | 0.01 | 0.53 | 0.52 | 94 | 1013.6 |
| 20260507013503 | 56 | 0 | 0.0 | 0.0 | 0.01 | 0.53 | 0.52 | 94 | 1014.0 |
| 20260507013304 | 56 | 0 | 0.0 | 0.0 | 0.01 | 0.53 | 0.52 | 94 | 1014.1 |
| 20260507013203 | 56 | 0 | 0.0 | 0.0 | 0.01 | 0.53 | 0.52 | 94 | 1013.5 |
| 20260507013103 | 56 | 0 | 0.0 | 0.0 | 0.01 | 0.53 | 0.52 | 94 | 1013.5 |
| 20260507013003 | 56 | 0 | 0.0 | 0.0 | 0.01 | 0.53 | 0.52 | 94 | 1012.7 |
| 20260507012903 | 56 | 0 | 0.0 | 0.0 | 0.01 | 0.53 | 0.52 | 94 | 1012.4 |
| 20260507012803 | 56 | 0 | 0.0 | 0.0 | 0.01 | 0.53 | 0.52 | 94 | 1012.4 |
| 20260507012704 | 56 | 0 | 0.0 | 0.0 | 0.01 | 0.53 | 0.52 | 94 | 1012.1 |
| 20260507012603 | 56 | 0 | 0.0 | 0.0 | 0.01 | 0.53 | 0.52 | 94 | 1012.1 |
| 20260507012503 | 56 | 0 | 0.0 | 0.0 | 0.01 | 0.53 | 0.52 | 94 | 1011.9 |
| 20260507012404 | 56 | 0 | 0.0 | 0.0 | 0.01 | 0.53 | 0.52 | 94 | 1011.9 |
| 20260507012306 | 56 | 0 | 0.0 | 0.0 | 0.01 | 0.53 | 0.52 | 94 | 1011.9 |
| 20260507012204 | 56 | 0 | 0.0 | 0.0 | 0.01 | 0.53 | 0.52 | 94 | 1011.8 |
| 20260507012118 | 56 | 0 | 0.0 | 0.0 | 0.01 | 0.53 | 0.52 | 94 | 1011.8 |
| 20260507012003 | 56 | 0 | 0.0 | 0.0 | 0.01 | 0.53 | 0.52 | 94 | 1011.9 |
| 20260507011703 | 56 | 0 | 0.0 | 0.0 | 0.01 | 0.53 | 0.52 | 94 | 1012.3 |
| 20260507011603 | 56 | 0 | 0.0 | 0.0 | 0.01 | 0.53 | 0.52 | 94 | 1012.5 |
| 20260507011503 | 56 | 0 | 0.0 | 0.0 | 0.00 | 0.52 | 0.51 | 94 | 1012.5 |
| 20260507011403 | 56 | 0 | 0.0 | 0.0 | 0.00 | 0.52 | 0.51 | 94 | 1012.9 |
| 20260507011303 | 56 | 0 | 0.0 | 0.0 | 0.00 | 0.52 | 0.51 | 94 | 1012.9 |
| 20260507011203 | 56 | 0 | 0.0 | 0.0 | 0.00 | 0.52 | 0.51 | 94 | 1013.0 |
| 20260507011103 | 56 | 0 | 0.0 | 0.0 | 0.00 | 0.52 | 0.51 | 94 | 1012.9 |
| 20260507011003 | 56 | 0 | 0.0 | 0.0 | 0.00 | 0.52 | 0.51 | 94 | 1012.9 |
| 20260507010803 | 56 | 0 | 0.0 | 0.0 | 0.00 | 0.52 | 0.51 | 94 | 1012.8 |
| 20260507010704 | 56 | 0 | 0.0 | 0.0 | 0.00 | 0.52 | 0.51 | 94 | 1012.7 |
| 20260507010604 | 56 | 0 | 0.0 | 0.0 | 0.00 | 0.52 | 0.51 | 94 | 1012.6 |
| 20260507010503 | 56 | 0 | 0.0 | 0.0 | 0.00 | 0.52 | 0.51 | 94 | 1012.6 |
| 20260507010403 | 56 | 0 | 0.0 | 0.0 | 0.00 | 0.52 | 0.51 | 94 | 1012.5 |
| 20260507010303 | 56 | 0 | 0.0 | 0.0 | 0.00 | 0.52 | 0.51 | 94 | 1012.5 |
| 20260507010203 | 56 | 0 | 0.0 | 0.0 | 0.00 | 0.52 | 0.51 | 94 | 1012.5 |
| 20260507010104 | 56 | 0 | 0.0 | 0.0 | 0.00 | 0.52 | 0.51 | 94 | 1012.5 |
| 20260507010004 | 56 | 0 | 0.0 | 0.0 | 0.01 | 0.52 | 0.51 | 94 | 1012.5 |
| 20260507005903 | 56 | 0 | 0.0 | 0.0 | 0.01 | 0.52 | 0.51 | 94 | 1012.4 |
| 20260507005803 | 56 | 0 | 0.0 | 0.0 | 0.01 | 0.52 | 0.51 | 94 | 1012.3 |
| 20260507005703 | 56 | 0 | 0.0 | 0.0 | 0.01 | 0.53 | 0.51 | 94 | 1012.3 |
| 20260507005603 | 56 | 0 | 0.0 | 0.0 | 0.01 | 0.53 | 0.51 | 94 | 1012.0 |
| 20260507005404 | 56 | 0 | 0.0 | 0.0 | 0.01 | 0.53 | 0.51 | 94 | 1011.8 |
| 20260507005306 | 56 | 0 | 0.0 | 0.0 | 0.01 | 0.53 | 0.51 | 94 | 1011.7 |
| 20260507005204 | 56 | 0 | 0.0 | 0.0 | 0.01 | 0.53 | 0.51 | 94 | 1011.7 |
| 20260507005103 | 56 | 0 | 0.0 | 0.0 | 0.01 | 0.53 | 0.51 | 94 | 1011.6 |
| 20260507005003 | 56 | 0 | 0.0 | 0.0 | 0.01 | 0.53 | 0.51 | 94 | 1011.4 |
| 20260507004903 | 56 | 0 | 0.0 | 0.0 | 0.01 | 0.54 | 0.51 | 94 | 1011.4 |
| 20260507004803 | 56 | 0 | 0.0 | 0.0 | 0.01 | 0.54 | 0.51 | 94 | 1011.2 |
| 20260507004703 | 56 | 0 | 0.0 | 0.0 | 0.01 | 0.54 | 0.51 | 94 | 1011.2 |
| 20260507004603 | 56 | 0 | 0.0 | 0.0 | 0.01 | 0.54 | 0.51 | 94 | 1010.9 |
| 20260507004503 | 56 | 0 | 0.0 | 0.0 | 0.01 | 0.54 | 0.51 | 94 | 1010.8 |
| 20260507004403 | 56 | 0 | 0.0 | 0.0 | 0.01 | 0.54 | 0.51 | 94 | 1010.8 |
| 20260507004303 | 56 | 0 | 0.0 | 0.0 | 0.01 | 0.54 | 0.51 | 94 | 1010.7 |
| 20260507004204 | 56 | 0 | 0.0 | 0.0 | 0.01 | 0.54 | 0.51 | 94 | 1010.7 |
| 20260507004104 | 56 | 0 | 0.0 | 0.0 | 0.01 | 0.54 | 0.51 | 94 | 1010.6 |
| 20260507004004 | 56 | 0 | 0.0 | 0.0 | 0.01 | 0.54 | 0.51 | 94 | 1010.6 |
| 20260507003903 | 56 | 0 | 0.0 | 0.0 | 0.01 | 0.54 | 0.51 | 94 | 1010.6 |
| 20260507003703 | 56 | 0 | 0.0 | 0.0 | 0.01 | 0.54 | 0.51 | 94 | 1010.4 |
| 20260507003604 | 56 | 0 | 0.0 | 0.0 | 0.01 | 0.54 | 0.51 | 94 | 1010.4 |
| 20260507003519 | 56 | 0 | 0.0 | 0.0 | 0.01 | 0.54 | 0.51 | 94 | 1010.4 |
| 20260507003404 | 56 | 0 | 0.0 | 0.0 | 0.01 | 0.54 | 0.51 | 94 | 1010.4 |
| 20260507003204 | 56 | 0 | 0.0 | 0.0 | 0.01 | 0.54 | 0.51 | 94 | 1010.6 |
| 20260507003104 | 56 | 0 | 0.0 | 0.0 | 0.01 | 0.54 | 0.51 | 94 | 1010.6 |
| 20260507003003 | 56 | 0 | 0.0 | 0.0 | 0.01 | 0.54 | 0.51 | 94 | 1010.6 |
| 20260507002903 | 56 | 0 | 0.0 | 0.0 | 0.01 | 0.54 | 0.51 | 94 | 1010.6 |
| 20260507002803 | 56 | 0 | 0.0 | 0.0 | 0.01 | 0.54 | 0.51 | 94 | 1010.7 |
| 20260507002704 | 56 | 0 | 0.0 | 0.0 | 0.01 | 0.54 | 0.51 | 94 | 1010.7 |
| 20260507002604 | 56 | 0 | 0.0 | 0.0 | 0.01 | 0.54 | 0.51 | 94 | 1010.7 |
| 20260507002404 | 56 | 0 | 0.0 | 0.0 | 0.01 | 0.54 | 0.51 | 94 | 1010.8 |
| 20260507002306 | 56 | 0 | 0.0 | 0.0 | 0.01 | 0.54 | 0.51 | 94 | 1010.9 |
| 20260507002203 | 56 | 0 | 0.0 | 0.0 | 0.01 | 0.54 | 0.51 | 94 | 1011.0 |
| 20260507002104 | 56 | 181 | 0.0 | 1.0 | 0.01 | 0.54 | 0.51 | 94 | 1011.0 |
| 20260507001903 | 56 | 181 | 0.0 | 1.0 | 0.02 | 0.54 | 0.51 | 94 | 1011.0 |
| 20260507001803 | 56 | 181 | 0.0 | 1.0 | 0.02 | 0.54 | 0.51 | 94 | 1011.0 |
| 20260507001704 | 56 | 181 | 0.0 | 1.0 | 0.02 | 0.54 | 0.51 | 94 | 1010.9 |
| 20260507001603 | 56 | 181 | 0.0 | 1.0 | 0.02 | 0.54 | 0.51 | 94 | 1010.9 |
| 20260507001504 | 56 | 181 | 0.0 | 1.0 | 0.02 | 0.54 | 0.51 | 94 | 1010.9 |
| 20260507001404 | 56 | 181 | 0.0 | 1.0 | 0.02 | 0.54 | 0.51 | 94 | 1010.9 |
| 20260507001304 | 56 | 181 | 0.0 | 1.0 | 0.02 | 0.54 | 0.51 | 94 | 1010.9 |
| 20260507001204 | 56 | 181 | 0.0 | 1.0 | 0.02 | 0.54 | 0.51 | 94 | 1011.0 |
| 20260507001103 | 56 | 181 | 0.0 | 1.0 | 0.02 | 0.54 | 0.51 | 94 | 1011.0 |
| 20260507001003 | 56 | 181 | 0.0 | 1.0 | 0.02 | 0.54 | 0.51 | 94 | 1011.1 |
| 20260507000903 | 56 | 181 | 0.0 | 1.0 | 0.02 | 0.54 | 0.51 | 94 | 1011.1 |
| 20260507000804 | 56 | 181 | 0.0 | 1.0 | 0.02 | 0.54 | 0.51 | 94 | 1011.1 |
| 20260507000703 | 56 | 181 | 0.0 | 1.0 | 0.02 | 0.54 | 0.51 | 94 | 1011.2 |
| 20260507000405 | 56 | 181 | 0.0 | 1.0 | 0.02 | 0.54 | 0.51 | 94 | 1011.3 |
| 20260507000306 | 56 | 181 | 0.0 | 1.0 | 0.02 | 0.54 | 0.51 | 94 | 1011.3 |
| 20260507000219 | 56 | 181 | 0.0 | 2.0 | 0.02 | 0.54 | 0.51 | 94 | 1011.4 |
| 20260506235803 | 56 | 181 | 0.0 | 2.0 | 0.01 | 0.53 | 0.50 | 94 | 1011.4 |
| 20260506235703 | 56 | 181 | 0.0 | 2.0 | 0.01 | 0.53 | 0.50 | 94 | 1011.4 |
| 20260506235604 | 56 | 181 | 0.0 | 2.0 | 0.01 | 0.53 | 0.50 | 94 | 1011.4 |
| 20260506235503 | 56 | 181 | 0.0 | 2.0 | 0.01 | 0.53 | 0.50 | 94 | 1011.4 |
| 20260506235306 | 56 | 181 | 0.0 | 2.0 | 0.01 | 0.53 | 0.50 | 94 | 1011.6 |
| 20260506235204 | 56 | 181 | 0.0 | 1.0 | 0.01 | 0.53 | 0.50 | 94 | 1012.2 |
| 20260506235104 | 56 | 0 | 0.0 | 0.0 | 0.01 | 0.53 | 0.50 | 94 | 1012.2 |
| 20260506235004 | 56 | 0 | 0.0 | 0.0 | 0.01 | 0.53 | 0.50 | 94 | 1012.2 |
| 20260506234919 | 56 | 0 | 0.0 | 0.0 | 0.01 | 0.53 | 0.50 | 94 | 1012.3 |
| 20260506234804 | 56 | 0 | 0.0 | 0.0 | 0.01 | 0.53 | 0.50 | 94 | 1012.3 |
| 20260506234603 | 56 | 0 | 0.0 | 0.0 | 0.01 | 0.53 | 0.50 | 94 | 1012.0 |
| 20260506234503 | 56 | 0 | 0.0 | 0.0 | 0.01 | 0.53 | 0.50 | 94 | 1012.0 |
| 20260506234404 | 56 | 0 | 0.0 | 0.0 | 0.01 | 0.53 | 0.50 | 94 | 1012.0 |
| 20260506234303 | 56 | 0 | 0.0 | 0.0 | 0.01 | 0.53 | 0.50 | 94 | 1011.8 |
| 20260506234103 | 56 | 0 | 0.0 | 0.0 | 0.01 | 0.53 | 0.50 | 94 | 1011.7 |
| 20260506234003 | 56 | 0 | 0.0 | 0.0 | 0.01 | 0.53 | 0.50 | 94 | 1011.7 |
| 20260506233903 | 56 | 0 | 0.0 | 0.0 | 0.01 | 0.53 | 0.50 | 94 | 1011.8 |
| 20260506233804 | 56 | 0 | 0.0 | 0.0 | 0.01 | 0.53 | 0.50 | 94 | 1011.8 |
| 20260506233604 | 56 | 0 | 0.0 | 0.0 | 0.01 | 0.53 | 0.50 | 94 | 1011.6 |
| 20260506233503 | 56 | 0 | 0.0 | 0.0 | 0.01 | 0.53 | 0.50 | 94 | 1011.6 |
| 20260506233404 | 56 | 0 | 0.0 | 0.0 | 0.01 | 0.53 | 0.50 | 94 | 1011.8 |
| 20260506233318 | 56 | 0 | 0.0 | 0.0 | 0.01 | 0.53 | 0.50 | 94 | 1011.8 |
| 20260506233303 | 56 | 0 | 0.0 | 0.0 | 0.01 | 0.53 | 0.50 | 94 | 1011.9 |
| 20260506233204 | 56 | 0 | 0.0 | 0.0 | 0.01 | 0.53 | 0.50 | 94 | 1011.9 |
| 20260506233003 | 56 | 0 | 0.0 | 0.0 | 0.01 | 0.53 | 0.50 | 94 | 1011.8 |
| 20260506232903 | 56 | 0 | 0.0 | 0.0 | 0.01 | 0.53 | 0.50 | 94 | 1011.9 |
| 20260506232804 | 56 | 0 | 0.0 | 0.0 | 0.01 | 0.53 | 0.50 | 94 | 1011.9 |
| 20260506232705 | 56 | 0 | 0.0 | 0.0 | 0.01 | 0.53 | 0.50 | 94 | 1011.9 |
| 20260506232603 | 56 | 0 | 0.0 | 0.0 | 0.01 | 0.53 | 0.50 | 94 | 1012.0 |
| 20260506232504 | 56 | 0 | 0.0 | 0.0 | 0.01 | 0.53 | 0.50 | 94 | 1012.0 |
| 20260506232403 | 56 | 0 | 0.0 | 0.0 | 0.01 | 0.53 | 0.50 | 94 | 1012.0 |
| 20260506232306 | 56 | 0 | 0.0 | 0.0 | 0.01 | 0.53 | 0.50 | 94 | 1012.1 |
| 20260506232204 | 56 | 0 | 0.0 | 0.0 | 0.01 | 0.53 | 0.50 | 94 | 1012.1 |
| 20260506232104 | 56 | 0 | 0.0 | 0.0 | 0.01 | 0.53 | 0.50 | 94 | 1012.0 |
| 20260506231904 | 56 | 0 | 0.0 | 0.0 | 0.00 | 0.52 | 0.49 | 94 | 1012.0 |
| 20260506231803 | 56 | 0 | 0.0 | 0.0 | 0.00 | 0.52 | 0.49 | 94 | 1011.9 |
| 20260506231704 | 56 | 0 | 0.0 | 0.0 | 0.00 | 0.52 | 0.49 | 94 | 1011.9 |
| 20260506231604 | 56 | 0 | 0.0 | 0.0 | 0.00 | 0.52 | 0.49 | 94 | 1012.0 |
| 20260506231503 | 56 | 0 | 0.0 | 0.0 | 0.00 | 0.52 | 0.49 | 94 | 1012.1 |
| 20260506231404 | 56 | 0 | 0.0 | 0.0 | 0.00 | 0.52 | 0.49 | 94 | 1012.1 |
| 20260506231304 | 56 | 0 | 0.0 | 0.0 | 0.00 | 0.52 | 0.49 | 94 | 1012.0 |
| 20260506231204 | 56 | 0 | 0.0 | 0.0 | 0.00 | 0.52 | 0.49 | 94 | 1012.0 |
| 20260506231103 | 56 | 0 | 0.0 | 0.0 | 0.00 | 0.52 | 0.49 | 94 | 1011.8 |
| 20260506231003 | 56 | 0 | 0.0 | 0.0 | 0.00 | 0.52 | 0.49 | 94 | 1011.8 |
| 20260506230904 | 56 | 0 | 0.0 | 0.0 | 0.00 | 0.52 | 0.49 | 94 | 1011.8 |
| 20260506230803 | 56 | 0 | 0.0 | 0.0 | 0.00 | 0.52 | 0.49 | 94 | 1011.9 |
| 20260506230718 | 56 | 0 | 0.0 | 0.0 | 0.00 | 0.52 | 0.49 | 94 | 1011.9 |
| 20260506230704 | 56 | 0 | 0.0 | 0.0 | 0.00 | 0.52 | 0.49 | 94 | 1012.1 |
| 20260506230603 | 56 | 0 | 0.0 | 0.0 | 0.00 | 0.52 | 0.49 | 94 | 1012.1 |
| 20260506230517 | 56 | 0 | 0.0 | 0.0 | 0.00 | 0.52 | 0.49 | 94 | 1012.1 |
| 20260506230203 | 56 | 0 | 0.0 | 0.0 | 0.00 | 0.52 | 0.49 | 94 | 1012.0 |
| 20260506230103 | 56 | 0 | 0.0 | 0.0 | 0.00 | 0.52 | 0.49 | 94 | 1012.0 |
| 20260506225904 | 56 | 0 | 0.0 | 0.0 | 0.00 | 0.52 | 0.49 | 94 | 1012.0 |
| 20260506225803 | 56 | 0 | 0.0 | 0.0 | 0.00 | 0.52 | 0.49 | 94 | 1012.1 |
| 20260506225703 | 56 | 0 | 0.0 | 0.0 | 0.00 | 0.52 | 0.49 | 94 | 1012.2 |
| 20260506225603 | 56 | 0 | 0.0 | 0.0 | 0.00 | 0.52 | 0.49 | 94 | 1012.2 |
| 20260506225503 | 56 | 0 | 0.0 | 0.0 | 0.00 | 0.52 | 0.49 | 94 | 1012.2 |
| 20260506225403 | 56 | 0 | 0.0 | 0.0 | 0.00 | 0.52 | 0.49 | 94 | 1012.2 |
| 20260506225305 | 56 | 0 | 0.0 | 0.0 | 0.00 | 0.52 | 0.49 | 94 | 1012.2 |
| 20260506225203 | 56 | 0 | 0.0 | 0.0 | 0.00 | 0.52 | 0.49 | 94 | 1012.3 |
| 20260506225103 | 56 | 0 | 0.0 | 0.0 | 0.00 | 0.52 | 0.49 | 94 | 1012.3 |
| 20260506225003 | 56 | 0 | 0.0 | 0.0 | 0.00 | 0.52 | 0.49 | 94 | 1012.3 |
| 20260506224903 | 56 | 0 | 0.0 | 0.0 | 0.00 | 0.52 | 0.49 | 94 | 1012.2 |
| 20260506224803 | 56 | 0 | 0.0 | 0.0 | 0.00 | 0.52 | 0.49 | 94 | 1012.2 |
| 20260506224704 | 56 | 0 | 0.0 | 0.0 | 0.00 | 0.52 | 0.49 | 94 | 1012.0 |
| 20260506224604 | 56 | 0 | 0.0 | 0.0 | 0.00 | 0.52 | 0.49 | 94 | 1012.0 |
| 20260506224503 | 56 | 0 | 0.0 | 0.0 | 0.00 | 0.52 | 0.49 | 94 | 1012.2 |
| 20260506224403 | 56 | 0 | 0.0 | 0.0 | 0.00 | 0.52 | 0.49 | 94 | 1012.2 |
| 20260506224304 | 56 | 0 | 0.0 | 0.0 | 0.00 | 0.52 | 0.49 | 94 | 1012.2 |
| 20260506224104 | 56 | 0 | 0.0 | 0.0 | 0.00 | 0.52 | 0.49 | 94 | 1012.3 |
| 20260506224004 | 56 | 0 | 0.0 | 0.0 | 0.00 | 0.52 | 0.49 | 94 | 1012.3 |
| 20260506223903 | 56 | 0 | 0.0 | 0.0 | 0.00 | 0.52 | 0.49 | 94 | 1012.2 |
| 20260506223804 | 56 | 0 | 0.0 | 0.0 | 0.00 | 0.52 | 0.49 | 94 | 1012.2 |
| 20260506223704 | 56 | 0 | 0.0 | 0.0 | 0.00 | 0.52 | 0.49 | 94 | 1012.2 |
| 20260506223603 | 56 | 0 | 0.0 | 0.0 | 0.00 | 0.52 | 0.49 | 94 | 1012.3 |
| 20260506223503 | 56 | 0 | 0.0 | 0.0 | 0.00 | 0.52 | 0.49 | 94 | 1012.3 |
| 20260506223403 | 56 | 0 | 0.0 | 0.0 | 0.00 | 0.52 | 0.49 | 94 | 1012.3 |
| 20260506223303 | 56 | 0 | 0.0 | 0.0 | 0.00 | 0.52 | 0.49 | 94 | 1012.3 |
| 20260506223204 | 56 | 0 | 0.0 | 0.0 | 0.00 | 0.52 | 0.49 | 94 | 1012.3 |
| 20260506223117 | 56 | 0 | 0.0 | 0.0 | 0.00 | 0.52 | 0.49 | 94 | 1012.3 |
| 20260506223003 | 56 | 0 | 0.0 | 0.0 | 0.00 | 0.52 | 0.49 | 94 | 1012.3 |
| 20260506222803 | 56 | 0 | 0.0 | 0.0 | 0.00 | 0.52 | 0.49 | 94 | 1012.5 |
| 20260506222703 | 56 | 0 | 0.0 | 0.0 | 0.00 | 0.52 | 0.49 | 94 | 1012.5 |
| 20260506222603 | 56 | 0 | 0.0 | 0.0 | 0.00 | 0.52 | 0.49 | 94 | 1012.5 |
| 20260506222504 | 56 | 0 | 0.0 | 0.0 | 0.00 | 0.52 | 0.49 | 94 | 1012.5 |
| 20260506222404 | 56 | 0 | 0.0 | 0.0 | 0.00 | 0.52 | 0.49 | 94 | 1012.6 |
| 20260506222318 | 56 | 0 | 0.0 | 0.0 | 0.00 | 0.52 | 0.49 | 94 | 1012.6 |
| 20260506222003 | 56 | 0 | 0.0 | 0.0 | 0.00 | 0.52 | 0.49 | 94 | 1012.6 |
| 20260506221903 | 56 | 0 | 0.0 | 0.0 | 0.00 | 0.52 | 0.49 | 94 | 1012.6 |
| 20260506221803 | 56 | 199 | 0.0 | 1.0 | 0.00 | 0.52 | 0.49 | 94 | 1012.6 |
| 20260506221705 | 56 | 199 | 0.0 | 1.0 | 0.00 | 0.52 | 0.49 | 94 | 1012.6 |
| 20260506221603 | 56 | 199 | 0.0 | 1.0 | 0.00 | 0.52 | 0.49 | 94 | 1012.6 |
| 20260506221504 | 56 | 199 | 0.0 | 1.0 | 0.00 | 0.52 | 0.49 | 94 | 1012.6 |
| 20260506221403 | 56 | 199 | 0.0 | 1.0 | 0.00 | 0.52 | 0.49 | 94 | 1012.5 |
| 20260506221304 | 56 | 199 | 0.0 | 1.0 | 0.00 | 0.52 | 0.49 | 94 | 1012.5 |
| 20260506221203 | 56 | 199 | 0.0 | 1.0 | 0.01 | 0.52 | 0.49 | 94 | 1012.5 |
| 20260506221103 | 56 | 199 | 0.0 | 1.0 | 0.01 | 0.52 | 0.49 | 94 | 1012.4 |
| 20260506221003 | 56 | 199 | 0.0 | 1.0 | 0.01 | 0.52 | 0.49 | 94 | 1012.4 |
| 20260506220903 | 56 | 199 | 0.0 | 1.0 | 0.01 | 0.52 | 0.49 | 94 | 1012.3 |
| 20260506220804 | 56 | 199 | 0.0 | 1.0 | 0.01 | 0.52 | 0.49 | 94 | 1012.2 |
| 20260506220703 | 56 | 199 | 0.0 | 1.0 | 0.01 | 0.52 | 0.49 | 94 | 1012.2 |
| 20260506220503 | 56 | 199 | 0.0 | 1.0 | 0.01 | 0.52 | 0.49 | 94 | 1011.8 |
| 20260506220404 | 56 | 199 | 0.0 | 1.0 | 0.01 | 0.52 | 0.49 | 94 | 1011.8 |
| 20260506220304 | 56 | 199 | 0.0 | 1.0 | 0.01 | 0.52 | 0.49 | 94 | 1011.8 |
| 20260506220218 | 56 | 199 | 0.0 | 1.0 | 0.01 | 0.52 | 0.49 | 94 | 1011.8 |
| 20260506220104 | 56 | 199 | 0.0 | 1.0 | 0.01 | 0.52 | 0.49 | 94 | 1011.5 |
| 20260506215903 | 56 | 199 | 0.0 | 1.0 | 0.01 | 0.52 | 0.49 | 94 | 1011.3 |
| 20260506215804 | 56 | 199 | 0.0 | 2.0 | 0.01 | 0.52 | 0.49 | 94 | 1011.2 |
| 20260506215703 | 56 | 199 | 0.0 | 2.0 | 0.01 | 0.52 | 0.49 | 94 | 1011.2 |
| 20260506215603 | 56 | 199 | 0.0 | 2.0 | 0.01 | 0.52 | 0.49 | 94 | 1011.3 |
| 20260506215503 | 56 | 199 | 0.0 | 2.0 | 0.01 | 0.52 | 0.49 | 94 | 1011.3 |
| 20260506215403 | 56 | 199 | 0.0 | 2.0 | 0.01 | 0.52 | 0.49 | 94 | 1011.3 |
| 20260506215306 | 56 | 199 | 0.0 | 2.0 | 0.01 | 0.52 | 0.49 | 94 | 1011.4 |
| 20260506215203 | 56 | 199 | 0.0 | 2.0 | 0.01 | 0.52 | 0.49 | 94 | 1011.4 |
| 20260506215104 | 56 | 199 | 0.0 | 2.0 | 0.01 | 0.52 | 0.49 | 94 | 1011.5 |
| 20260506215004 | 56 | 199 | 0.0 | 2.0 | 0.01 | 0.52 | 0.49 | 94 | 1011.5 |
| 20260506214904 | 56 | 199 | 0.0 | 2.0 | 0.01 | 0.52 | 0.49 | 94 | 1011.5 |
| 20260506214803 | 56 | 199 | 0.0 | 2.0 | 0.01 | 0.52 | 0.49 | 94 | 1011.6 |
| 20260506214703 | 56 | 199 | 0.0 | 2.0 | 0.01 | 0.52 | 0.49 | 93 | 1011.6 |
| 20260506214603 | 56 | 199 | 0.0 | 2.0 | 0.01 | 0.52 | 0.49 | 93 | 1011.6 |
| 20260506214504 | 56 | 199 | 0.0 | 3.0 | 0.01 | 0.52 | 0.49 | 93 | 1011.7 |
| 20260506214403 | 56 | 199 | 0.0 | 3.0 | 0.01 | 0.52 | 0.49 | 93 | 1011.7 |
| 20260506214303 | 56 | 199 | 0.0 | 3.0 | 0.01 | 0.52 | 0.49 | 93 | 1011.8 |
| 20260506214203 | 56 | 199 | 0.0 | 3.0 | 0.01 | 0.52 | 0.49 | 93 | 1011.8 |
| 20260506214103 | 56 | 199 | 0.0 | 3.0 | 0.01 | 0.52 | 0.49 | 93 | 1011.8 |
| 20260506214017 | 56 | 199 | 0.0 | 3.0 | 0.01 | 0.52 | 0.49 | 93 | 1011.9 |
| 20260506213904 | 56 | 199 | 0.0 | 3.0 | 0.01 | 0.52 | 0.49 | 93 | 1011.9 |
| 20260506213703 | 56 | 199 | 0.0 | 3.0 | 0.01 | 0.52 | 0.49 | 93 | 1012.1 |
| 20260506213604 | 56 | 199 | 0.0 | 3.0 | 0.01 | 0.52 | 0.49 | 93 | 1012.1 |
| 20260506213504 | 56 | 199 | 0.0 | 1.0 | 0.02 | 0.52 | 0.49 | 93 | 1012.0 |
| 20260506213403 | 56 | 199 | 0.0 | 1.0 | 0.02 | 0.52 | 0.49 | 93 | 1012.0 |
| 20260506213303 | 56 | 199 | 0.0 | 1.0 | 0.02 | 0.52 | 0.49 | 93 | 1011.9 |
| 20260506213203 | 56 | 199 | 0.0 | 1.0 | 0.02 | 0.52 | 0.49 | 93 | 1011.9 |
| 20260506213104 | 56 | 199 | 0.0 | 1.0 | 0.02 | 0.52 | 0.49 | 93 | 1011.9 |
| 20260506213004 | 56 | 199 | 0.0 | 1.0 | 0.02 | 0.52 | 0.49 | 93 | 1011.8 |
| 20260506212918 | 56 | 199 | 0.0 | 1.0 | 0.03 | 0.52 | 0.49 | 93 | 1011.8 |
| 20260506212904 | 56 | 199 | 0.0 | 1.0 | 0.03 | 0.52 | 0.49 | 93 | 1011.6 |
| 20260506212804 | 56 | 199 | 0.0 | 1.0 | 0.03 | 0.52 | 0.49 | 93 | 1011.6 |
| 20260506212604 | 56 | 0 | 0.0 | 0.0 | 0.03 | 0.52 | 0.49 | 93 | 1011.6 |
| 20260506212503 | 56 | 0 | 0.0 | 0.0 | 0.03 | 0.52 | 0.49 | 93 | 1011.4 |
| 20260506212306 | 56 | 0 | 0.0 | 0.0 | 0.03 | 0.52 | 0.49 | 93 | 1011.3 |
| 20260506212203 | 56 | 0 | 0.0 | 0.0 | 0.03 | 0.52 | 0.49 | 93 | 1011.3 |
| 20260506211904 | 56 | 0 | 0.0 | 0.0 | 0.03 | 0.52 | 0.49 | 93 | 1011.1 |
| 20260506211804 | 56 | 0 | 0.0 | 0.0 | 0.03 | 0.52 | 0.49 | 93 | 1011.1 |
| 20260506211704 | 56 | 0 | 0.0 | 0.0 | 0.03 | 0.52 | 0.49 | 93 | 1010.9 |
| 20260506211603 | 56 | 0 | 0.0 | 0.0 | 0.03 | 0.52 | 0.49 | 93 | 1010.9 |
| 20260506211503 | 56 | 0 | 0.0 | 0.0 | 0.03 | 0.52 | 0.49 | 93 | 1010.9 |
| 20260506211404 | 56 | 0 | 0.0 | 0.0 | 0.03 | 0.52 | 0.49 | 93 | 1010.9 |
| 20260506211303 | 56 | 0 | 0.0 | 0.0 | 0.03 | 0.52 | 0.49 | 93 | 1010.9 |
| 20260506211204 | 56 | 0 | 0.0 | 0.0 | 0.02 | 0.51 | 0.48 | 93 | 1011.0 |
| 20260506211103 | 56 | 0 | 0.0 | 0.0 | 0.02 | 0.51 | 0.48 | 94 | 1011.1 |
| 20260506211003 | 56 | 0 | 0.0 | 0.0 | 0.02 | 0.51 | 0.48 | 93 | 1011.1 |
| 20260506210903 | 56 | 0 | 0.0 | 0.0 | 0.02 | 0.51 | 0.48 | 93 | 1011.3 |
| 20260506210803 | 56 | 0 | 0.0 | 0.0 | 0.02 | 0.51 | 0.48 | 93 | 1011.3 |
| 20260506210703 | 56 | 0 | 0.0 | 0.0 | 0.02 | 0.51 | 0.48 | 93 | 1011.4 |
| 20260506210503 | 56 | 199 | 0.0 | 1.0 | 0.02 | 0.51 | 0.48 | 93 | 1011.4 |
| 20260506210403 | 56 | 189 | 0.0 | 4.0 | 0.02 | 0.51 | 0.48 | 93 | 1011.3 |
| 20260506210303 | 56 | 189 | 0.0 | 4.0 | 0.02 | 0.51 | 0.48 | 93 | 1011.3 |
| 20260506210203 | 56 | 189 | 0.0 | 4.0 | 0.02 | 0.51 | 0.48 | 93 | 1011.3 |
| 20260506210103 | 56 | 189 | 0.0 | 4.0 | 0.02 | 0.51 | 0.48 | 93 | 1011.4 |
| 20260506205904 | 56 | 189 | 0.0 | 4.0 | 0.02 | 0.51 | 0.48 | 93 | 1011.5 |
| 20260506205803 | 56 | 189 | 0.0 | 4.0 | 0.02 | 0.51 | 0.48 | 93 | 1011.5 |
| 20260506205703 | 56 | 189 | 0.0 | 4.0 | 0.02 | 0.51 | 0.48 | 93 | 1011.5 |
| 20260506205603 | 56 | 189 | 0.0 | 4.0 | 0.02 | 0.51 | 0.48 | 93 | 1011.5 |
| 20260506205503 | 56 | 189 | 0.0 | 4.0 | 0.02 | 0.51 | 0.48 | 93 | 1011.5 |
| 20260506205403 | 56 | 0 | 0.0 | 0.0 | 0.02 | 0.51 | 0.48 | 93 | 1011.5 |
| 20260506205203 | 56 | 0 | 0.0 | 0.0 | 0.02 | 0.51 | 0.48 | 93 | 1011.5 |
| 20260506205103 | 56 | 0 | 0.0 | 0.0 | 0.02 | 0.51 | 0.48 | 93 | 1011.3 |
| 20260506204803 | 56 | 142 | 0.0 | 1.0 | 0.02 | 0.51 | 0.48 | 93 | 1011.4 |
| 20260506204703 | 56 | 142 | 0.0 | 1.0 | 0.02 | 0.51 | 0.48 | 93 | 1011.4 |
| 20260506204603 | 56 | 142 | 0.0 | 2.0 | 0.02 | 0.51 | 0.48 | 93 | 1011.3 |
| 20260506204404 | 56 | 142 | 0.0 | 2.0 | 0.02 | 0.51 | 0.48 | 93 | 1011.4 |
| 20260506204303 | 56 | 142 | 0.0 | 2.0 | 0.02 | 0.51 | 0.48 | 93 | 1011.5 |
| 20260506204203 | 56 | 142 | 0.0 | 3.0 | 0.02 | 0.51 | 0.48 | 93 | 1011.5 |
| 20260506204103 | 56 | 142 | 0.0 | 3.0 | 0.02 | 0.51 | 0.48 | 93 | 1011.5 |
| 20260506204003 | 56 | 142 | 0.0 | 3.0 | 0.02 | 0.51 | 0.48 | 93 | 1011.5 |
| 20260506203903 | 56 | 142 | 0.0 | 3.0 | 0.02 | 0.51 | 0.48 | 93 | 1011.5 |
| 20260506203803 | 56 | 142 | 0.0 | 3.0 | 0.02 | 0.51 | 0.48 | 93 | 1011.5 |
| 20260506203604 | 56 | 142 | 0.0 | 3.0 | 0.02 | 0.51 | 0.48 | 93 | 1011.5 |
| 20260506203503 | 56 | 142 | 0.0 | 3.0 | 0.01 | 0.50 | 0.47 | 93 | 1011.5 |
| 20260506203303 | 56 | 143 | 0.0 | 3.0 | 0.01 | 0.50 | 0.47 | 93 | 1011.5 |
| 20260506203203 | 56 | 144 | 0.0 | 2.0 | 0.01 | 0.50 | 0.47 | 93 | 1011.5 |
| 20260506203103 | 56 | 144 | 0.0 | 2.0 | 0.01 | 0.50 | 0.47 | 93 | 1011.6 |
| 20260506203004 | 56 | 143 | 0.0 | 2.0 | 0.01 | 0.50 | 0.47 | 93 | 1011.6 |
| 20260506202903 | 56 | 143 | 0.0 | 2.0 | 0.00 | 0.49 | 0.46 | 93 | 1011.6 |
| 20260506202803 | 56 | 143 | 0.0 | 2.0 | 0.00 | 0.49 | 0.46 | 93 | 1011.4 |
| 20260506202703 | 56 | 143 | 0.0 | 2.0 | 0.00 | 0.49 | 0.46 | 93 | 1011.4 |
| 20260506202603 | 56 | 143 | 0.0 | 2.0 | 0.00 | 0.49 | 0.46 | 93 | 1011.4 |
| 20260506202504 | 56 | 142 | 0.0 | 2.0 | 0.00 | 0.49 | 0.46 | 93 | 1011.4 |
| 20260506202404 | 56 | 142 | 0.0 | 2.0 | 0.00 | 0.49 | 0.46 | 93 | 1011.4 |
| 20260506202306 | 56 | 136 | 0.0 | 2.0 | 0.00 | 0.49 | 0.46 | 93 | 1011.5 |
| 20260506202204 | 56 | 120 | 0.0 | 2.0 | 0.00 | 0.49 | 0.46 | 93 | 1011.5 |
| 20260506202003 | 56 | 67 | 0.0 | 2.0 | 0.00 | 0.49 | 0.46 | 93 | 1011.6 |
| 20260506201903 | 56 | 37 | 0.0 | 2.0 | 0.00 | 0.49 | 0.46 | 93 | 1011.6 |
| 20260506201803 | 56 | 30 | 0.0 | 2.0 | 0.01 | 0.49 | 0.46 | 93 | 1011.5 |
| 20260506201703 | 56 | 30 | 0.0 | 2.0 | 0.01 | 0.49 | 0.46 | 93 | 1011.4 |
| 20260506201603 | 56 | 30 | 0.0 | 2.0 | 0.01 | 0.49 | 0.46 | 93 | 1011.4 |
| 20260506201503 | 56 | 27 | 0.0 | 2.0 | 0.01 | 0.49 | 0.46 | 93 | 1011.4 |
| 20260506201403 | 56 | 21 | 0.0 | 2.0 | 0.01 | 0.49 | 0.46 | 93 | 1011.4 |
| 20260506201303 | 56 | 21 | 0.0 | 2.0 | 0.01 | 0.49 | 0.46 | 93 | 1011.3 |
| 20260506201203 | 56 | 22 | 0.0 | 3.0 | 0.01 | 0.49 | 0.46 | 93 | 1011.3 |
| 20260506201103 | 56 | 23 | 0.0 | 3.0 | 0.02 | 0.49 | 0.46 | 93 | 1011.3 |
| 20260506201003 | 56 | 23 | 0.0 | 3.0 | 0.02 | 0.49 | 0.46 | 93 | 1011.2 |
| 20260506200904 | 56 | 23 | 0.0 | 3.0 | 0.02 | 0.49 | 0.46 | 94 | 1011.2 |
| 20260506200803 | 56 | 24 | 0.0 | 3.0 | 0.02 | 0.49 | 0.46 | 93 | 1011.1 |
| 20260506200703 | 56 | 24 | 0.0 | 3.0 | 0.02 | 0.49 | 0.46 | 93 | 1011.0 |
| 20260506200603 | 56 | 24 | 0.0 | 3.0 | 0.03 | 0.49 | 0.46 | 93 | 1011.0 |
| 20260506200403 | 56 | 24 | 0.0 | 3.0 | 0.03 | 0.49 | 0.46 | 93 | 1011.0 |
| 20260506200304 | 56 | 24 | 0.0 | 3.0 | 0.03 | 0.49 | 0.46 | 94 | 1011.0 |
| 20260506200219 | 56 | 25 | 0.0 | 2.0 | 0.03 | 0.49 | 0.46 | 94 | 1011.1 |
| 20260506200203 | 56 | 0 | 0.0 | 0.0 | 0.03 | 0.49 | 0.46 | 94 | 1011.1 |
| 20260506195917 | 56 | 267 | 0.0 | 1.0 | 0.03 | 0.49 | 0.46 | 94 | 1011.1 |
| 20260506195904 | 56 | 267 | 0.0 | 1.0 | 0.03 | 0.49 | 0.46 | 94 | 1011.0 |
| 20260506195803 | 56 | 267 | 0.0 | 1.0 | 0.04 | 0.49 | 0.46 | 94 | 1011.0 |
| 20260506195716 | 56 | 267 | 0.0 | 1.0 | 0.04 | 0.49 | 0.46 | 93 | 1010.9 |
| 20260506195604 | 56 | 267 | 0.0 | 1.0 | 0.04 | 0.49 | 0.46 | 94 | 1010.9 |
| 20260506195517 | 56 | 267 | 0.0 | 1.0 | 0.04 | 0.49 | 0.46 | 94 | 1010.8 |
| 20260506195404 | 56 | 267 | 0.0 | 1.0 | 0.04 | 0.49 | 0.46 | 94 | 1010.9 |
| 20260506195204 | 56 | 277 | 0.0 | 2.0 | 0.04 | 0.49 | 0.46 | 94 | 1011.0 |
| 20260506195104 | 56 | 298 | 0.0 | 2.0 | 0.04 | 0.49 | 0.46 | 94 | 1011.1 |
| 20260506195004 | 56 | 308 | 0.0 | 2.0 | 0.04 | 0.49 | 0.46 | 94 | 1011.1 |
| 20260506194904 | 56 | 320 | 0.0 | 2.0 | 0.04 | 0.49 | 0.46 | 93 | 1011.2 |
| 20260506194803 | 56 | 323 | 0.0 | 2.0 | 0.04 | 0.49 | 0.46 | 94 | 1011.2 |
| 20260506194704 | 56 | 332 | 0.0 | 2.0 | 0.04 | 0.49 | 0.46 | 93 | 1011.3 |
| 20260506194617 | 56 | 337 | 1.0 | 2.0 | 0.04 | 0.49 | 0.46 | 93 | 1011.3 |
| 20260506194603 | 56 | 336 | 1.0 | 2.0 | 0.04 | 0.49 | 0.46 | 93 | 1011.3 |
| 20260506194504 | 56 | 335 | 1.0 | 2.0 | 0.04 | 0.49 | 0.46 | 93 | 1011.3 |
| 20260506194418 | 56 | 336 | 1.0 | 2.0 | 0.04 | 0.49 | 0.46 | 93 | 1011.3 |
| 20260506194303 | 56 | 340 | 1.0 | 2.0 | 0.05 | 0.49 | 0.46 | 93 | 1011.3 |
| 20260506194217 | 56 | 336 | 1.0 | 2.0 | 0.05 | 0.49 | 0.46 | 93 | 1011.0 |
| 20260506194104 | 56 | 324 | 1.0 | 3.0 | 0.05 | 0.49 | 0.46 | 93 | 1010.9 |
| 20260506193903 | 56 | 317 | 1.0 | 3.0 | 0.05 | 0.49 | 0.46 | 93 | 1011.0 |
| 20260506193804 | 56 | 315 | 1.0 | 3.0 | 0.05 | 0.49 | 0.46 | 93 | 1011.0 |
| 20260506193718 | 56 | 312 | 1.0 | 3.0 | 0.06 | 0.49 | 0.46 | 93 | 1011.0 |
| 20260506193703 | 56 | 311 | 1.0 | 3.0 | 0.06 | 0.49 | 0.46 | 93 | 1011.0 |
| 20260506193604 | 56 | 305 | 1.0 | 3.0 | 0.06 | 0.49 | 0.46 | 93 | 1011.0 |
| 20260506193403 | 56 | 300 | 1.0 | 3.0 | 0.06 | 0.49 | 0.46 | 93 | 1011.0 |
| 20260506193304 | 56 | 295 | 1.0 | 3.0 | 0.06 | 0.49 | 0.46 | 93 | 1011.1 |
| 20260506193203 | 56 | 289 | 1.0 | 3.0 | 0.06 | 0.49 | 0.46 | 93 | 1011.1 |
| 20260506193103 | 56 | 282 | 1.0 | 3.0 | 0.06 | 0.49 | 0.46 | 93 | 1011.4 |
| 20260506193004 | 56 | 267 | 1.0 | 3.0 | 0.06 | 0.49 | 0.46 | 93 | 1011.4 |
| 20260506192903 | 56 | 260 | 1.0 | 3.0 | 0.06 | 0.49 | 0.46 | 93 | 1011.6 |
| 20260506192804 | 56 | 245 | 1.0 | 3.0 | 0.06 | 0.49 | 0.46 | 93 | 1011.6 |
| 20260506192704 | 56 | 236 | 1.0 | 3.0 | 0.07 | 0.49 | 0.46 | 93 | 1011.6 |
| 20260506192604 | 56 | 231 | 1.0 | 3.0 | 0.07 | 0.49 | 0.46 | 93 | 1011.5 |
| 20260506192503 | 56 | 234 | 1.0 | 3.0 | 0.07 | 0.49 | 0.46 | 93 | 1011.5 |
| 20260506192404 | 56 | 216 | 1.0 | 3.0 | 0.07 | 0.49 | 0.46 | 93 | 1011.4 |
| 20260506192305 | 56 | 210 | 1.0 | 3.0 | 0.07 | 0.49 | 0.46 | 93 | 1011.4 |
| 20260506192217 | 56 | 221 | 1.0 | 4.0 | 0.07 | 0.49 | 0.46 | 93 | 1011.4 |
| 20260506192203 | 56 | 222 | 1.0 | 4.0 | 0.07 | 0.49 | 0.46 | 93 | 1011.4 |
| 20260506192103 | 56 | 228 | 1.0 | 4.0 | 0.07 | 0.49 | 0.46 | 93 | 1011.4 |
| 20260506191903 | 56 | 264 | 1.0 | 4.0 | 0.07 | 0.49 | 0.46 | 93 | 1011.4 |
| 20260506191803 | 56 | 290 | 1.0 | 4.0 | 0.06 | 0.48 | 0.45 | 93 | 1011.5 |
| 20260506191704 | 56 | 305 | 1.0 | 4.0 | 0.06 | 0.48 | 0.45 | 93 | 1011.5 |
| 20260506191603 | 56 | 310 | 1.0 | 4.0 | 0.06 | 0.48 | 0.45 | 92 | 1011.7 |
| 20260506191504 | 56 | 315 | 1.0 | 4.0 | 0.06 | 0.48 | 0.45 | 92 | 1011.8 |
| 20260506191404 | 56 | 314 | 1.0 | 4.0 | 0.06 | 0.48 | 0.45 | 92 | 1011.8 |
| 20260506191304 | 56 | 316 | 1.0 | 4.0 | 0.06 | 0.48 | 0.45 | 93 | 1011.8 |
| 20260506191203 | 56 | 318 | 1.0 | 2.0 | 0.06 | 0.48 | 0.45 | 93 | 1011.8 |
| 20260506191103 | 56 | 316 | 1.0 | 2.0 | 0.05 | 0.47 | 0.44 | 93 | 1011.8 |
| 20260506191003 | 56 | 310 | 1.0 | 2.0 | 0.05 | 0.47 | 0.44 | 93 | 1011.9 |
| 20260506190903 | 56 | 306 | 1.0 | 2.0 | 0.05 | 0.47 | 0.44 | 93 | 1011.9 |
| 20260506190803 | 56 | 309 | 0.0 | 2.0 | 0.05 | 0.47 | 0.44 | 93 | 1012.1 |
| 20260506190704 | 56 | 310 | 0.0 | 2.0 | 0.05 | 0.47 | 0.44 | 93 | 1012.1 |
| 20260506190603 | 56 | 311 | 0.0 | 2.0 | 0.04 | 0.46 | 0.43 | 93 | 1012.1 |
| 20260506190504 | 56 | 312 | 0.0 | 2.0 | 0.04 | 0.46 | 0.43 | 93 | 1012.2 |
| 20260506190404 | 56 | 313 | 0.0 | 1.0 | 0.04 | 0.46 | 0.43 | 93 | 1012.2 |
| 20260506190303 | 56 | 313 | 0.0 | 1.0 | 0.04 | 0.46 | 0.43 | 93 | 1012.3 |
| 20260506190203 | 56 | 312 | 0.0 | 1.0 | 0.04 | 0.46 | 0.43 | 93 | 1012.3 |
| 20260506190003 | 56 | 313 | 0.0 | 4.0 | 0.04 | 0.46 | 0.43 | 93 | 1012.2 |
| 20260506185904 | 56 | 310 | 0.0 | 4.0 | 0.04 | 0.46 | 0.43 | 93 | 1012.2 |
| 20260506185704 | 56 | 305 | 0.0 | 4.0 | 0.03 | 0.45 | 0.42 | 93 | 1012.2 |
| 20260506185603 | 56 | 299 | 0.0 | 4.0 | 0.03 | 0.45 | 0.42 | 93 | 1012.2 |
| 20260506185503 | 56 | 300 | 0.0 | 4.0 | 0.03 | 0.45 | 0.42 | 93 | 1012.1 |
| 20260506185403 | 56 | 300 | 0.0 | 4.0 | 0.03 | 0.45 | 0.42 | 93 | 1012.1 |
| 20260506185203 | 56 | 300 | 0.0 | 4.0 | 0.03 | 0.45 | 0.42 | 93 | 1012.0 |
| 20260506185103 | 56 | 298 | 0.0 | 4.0 | 0.03 | 0.45 | 0.42 | 93 | 1012.0 |
| 20260506185003 | 56 | 281 | 0.0 | 3.0 | 0.03 | 0.45 | 0.42 | 93 | 1012.1 |
| 20260506184904 | 56 | 291 | 0.0 | 2.0 | 0.03 | 0.45 | 0.42 | 93 | 1012.1 |
| 20260506184803 | 56 | 291 | 0.0 | 2.0 | 0.03 | 0.45 | 0.42 | 93 | 1012.1 |
| 20260506184718 | 56 | 296 | 0.0 | 2.0 | 0.03 | 0.45 | 0.42 | 93 | 1012.2 |
| 20260506184704 | 56 | 298 | 0.0 | 2.0 | 0.03 | 0.45 | 0.42 | 93 | 1012.2 |
| 20260506184604 | 56 | 312 | 0.0 | 1.0 | 0.03 | 0.45 | 0.42 | 93 | 1012.2 |
| 20260506184403 | 56 | 312 | 0.0 | 1.0 | 0.03 | 0.45 | 0.42 | 93 | 1012.1 |
| 20260506184303 | 56 | 312 | 0.0 | 1.0 | 0.02 | 0.44 | 0.41 | 93 | 1012.1 |
| 20260506184203 | 56 | 312 | 0.0 | 1.0 | 0.02 | 0.44 | 0.41 | 93 | 1012.0 |
| 20260506184103 | 56 | 312 | 0.0 | 1.0 | 0.02 | 0.44 | 0.41 | 93 | 1012.0 |
| 20260506183905 | 56 | 312 | 0.0 | 1.0 | 0.02 | 0.44 | 0.41 | 93 | 1011.9 |
| 20260506183803 | 56 | 312 | 0.0 | 1.0 | 0.02 | 0.44 | 0.41 | 93 | 1011.9 |
| 20260506183703 | 56 | 312 | 0.0 | 1.0 | 0.01 | 0.43 | 0.40 | 93 | 1011.8 |
| 20260506183603 | 56 | 312 | 0.0 | 1.0 | 0.01 | 0.43 | 0.40 | 93 | 1011.8 |
| 20260506183504 | 56 | 312 | 0.0 | 1.0 | 0.01 | 0.43 | 0.40 | 93 | 1011.8 |
| 20260506183404 | 56 | 312 | 0.0 | 1.0 | 0.01 | 0.43 | 0.40 | 93 | 1011.8 |
| 20260506183304 | 56 | 312 | 0.0 | 2.0 | 0.01 | 0.43 | 0.40 | 93 | 1011.8 |
| 20260506183204 | 56 | 312 | 0.0 | 2.0 | 0.01 | 0.43 | 0.40 | 93 | 1011.7 |
| 20260506183117 | 56 | 313 | 0.0 | 2.0 | 0.01 | 0.43 | 0.40 | 92 | 1011.7 |
| 20260506183104 | 56 | 312 | 0.0 | 3.0 | 0.01 | 0.43 | 0.40 | 92 | 1011.7 |
| 20260506183018 | 56 | 304 | 0.0 | 3.0 | 0.01 | 0.43 | 0.40 | 93 | 1011.7 |
| 20260506183003 | 56 | 302 | 0.0 | 3.0 | 0.01 | 0.43 | 0.40 | 93 | 1011.7 |
| 20260506182817 | 56 | 289 | 0.0 | 3.0 | 0.01 | 0.43 | 0.40 | 93 | 1011.7 |
| 20260506182704 | 56 | 286 | 0.0 | 3.0 | 0.00 | 0.42 | 0.39 | 92 | 1011.7 |
| 20260506182616 | 56 | 285 | 0.0 | 3.0 | 0.00 | 0.42 | 0.39 | 92 | 1011.7 |
| 20260506182519 | 56 | 283 | 1.0 | 3.0 | 0.00 | 0.42 | 0.39 | 92 | 1011.6 |
| 20260506182504 | 56 | 281 | 1.0 | 3.0 | 0.00 | 0.42 | 0.39 | 92 | 1011.6 |
| 20260506182418 | 56 | 277 | 1.0 | 3.0 | 0.00 | 0.42 | 0.39 | 92 | 1011.5 |
| 20260506182318 | 56 | 274 | 0.0 | 3.0 | 0.00 | 0.42 | 0.39 | 92 | 1011.5 |
| 20260506182003 | 56 | 237 | 0.0 | 3.0 | 0.00 | 0.42 | 0.39 | 92 | 1011.6 |
| 20260506181904 | 56 | 236 | 0.0 | 2.0 | 0.00 | 0.42 | 0.39 | 92 | 1011.7 |
| 20260506181803 | 56 | 236 | 0.0 | 2.0 | 0.00 | 0.42 | 0.39 | 92 | 1011.7 |
| 20260506181703 | 56 | 236 | 0.0 | 2.0 | 0.00 | 0.42 | 0.39 | 92 | 1011.6 |
| 20260506181504 | 56 | 236 | 0.0 | 3.0 | 0.00 | 0.42 | 0.39 | 92 | 1011.5 |
| 20260506181404 | 56 | 236 | 0.0 | 3.0 | 0.00 | 0.42 | 0.39 | 92 | 1011.4 |
| 20260506181303 | 56 | 235 | 0.0 | 3.0 | 0.00 | 0.42 | 0.39 | 92 | 1011.4 |
| 20260506181104 | 56 | 234 | 0.0 | 3.0 | 0.00 | 0.42 | 0.39 | 92 | 1011.4 |
| 20260506181003 | 56 | 235 | 0.0 | 3.0 | 0.00 | 0.42 | 0.39 | 92 | 1011.4 |
| 20260506180904 | 56 | 235 | 0.0 | 3.0 | 0.00 | 0.42 | 0.39 | 92 | 1011.3 |
| 20260506180803 | 56 | 235 | 0.0 | 3.0 | 0.00 | 0.42 | 0.39 | 92 | 1011.3 |
| 20260506180703 | 56 | 235 | 0.0 | 3.0 | 0.00 | 0.42 | 0.39 | 92 | 1011.3 |
| 20260506180503 | 56 | 235 | 0.0 | 3.0 | 0.00 | 0.42 | 0.39 | 92 | 1011.3 |
| 20260506180404 | 56 | 235 | 0.0 | 3.0 | 0.00 | 0.42 | 0.39 | 92 | 1011.3 |
| 20260506180203 | 56 | 235 | 0.0 | 3.0 | 0.00 | 0.42 | 0.39 | 93 | 1011.3 |
| 20260506175817 | 56 | 229 | 0.0 | 3.0 | 0.00 | 0.42 | 0.39 | 92 | 1011.0 |
| 20260506175804 | 56 | 229 | 0.0 | 3.0 | 0.00 | 0.42 | 0.39 | 93 | 1011.0 |
| 20260506175703 | 56 | 226 | 1.0 | 3.0 | 0.00 | 0.42 | 0.39 | 93 | 1011.0 |
| 20260506175503 | 56 | 224 | 1.0 | 3.0 | 0.00 | 0.42 | 0.39 | 92 | 1011.1 |
| 20260506175403 | 56 | 224 | 1.0 | 3.0 | 0.00 | 0.42 | 0.39 | 92 | 1011.1 |
| 20260506175306 | 56 | 222 | 1.0 | 3.0 | 0.00 | 0.42 | 0.39 | 92 | 1011.2 |
| 20260506175203 | 56 | 219 | 1.0 | 2.0 | 0.00 | 0.42 | 0.39 | 92 | 1011.2 |
| 20260506175104 | 56 | 219 | 1.0 | 2.0 | 0.00 | 0.42 | 0.39 | 92 | 1011.2 |
| 20260506175004 | 56 | 219 | 1.0 | 2.0 | 0.00 | 0.42 | 0.39 | 92 | 1011.3 |
| 20260506174903 | 56 | 219 | 0.0 | 2.0 | 0.00 | 0.42 | 0.39 | 92 | 1011.3 |
| 20260506174804 | 57 | 219 | 0.0 | 2.0 | 0.00 | 0.42 | 0.39 | 92 | 1011.4 |
| 20260506174704 | 57 | 219 | 0.0 | 2.0 | 0.00 | 0.42 | 0.39 | 92 | 1011.4 |
| 20260506174603 | 57 | 232 | 0.0 | 4.0 | 0.00 | 0.42 | 0.39 | 92 | 1011.4 |
| 20260506174504 | 57 | 260 | 0.0 | 4.0 | 0.00 | 0.42 | 0.39 | 92 | 1011.4 |
| 20260506174404 | 57 | 252 | 0.0 | 4.0 | 0.00 | 0.42 | 0.39 | 92 | 1011.4 |
| 20260506174318 | 57 | 241 | 0.0 | 4.0 | 0.00 | 0.42 | 0.39 | 92 | 1011.3 |
| 20260506174303 | 57 | 239 | 0.0 | 4.0 | 0.00 | 0.42 | 0.39 | 92 | 1011.3 |
| 20260506174203 | 56 | 238 | 0.0 | 4.0 | 0.00 | 0.42 | 0.39 | 92 | 1011.3 |
| 20260506174117 | 56 | 240 | 0.0 | 4.0 | 0.00 | 0.42 | 0.39 | 92 | 1011.3 |
| 20260506174003 | 57 | 242 | 0.0 | 4.0 | 0.00 | 0.42 | 0.39 | 92 | 1011.3 |
| 20260506173918 | 56 | 242 | 0.0 | 4.0 | 0.00 | 0.42 | 0.39 | 92 | 1011.3 |
| 20260506173804 | 57 | 236 | 0.0 | 4.0 | 0.00 | 0.42 | 0.39 | 92 | 1011.3 |
| 20260506173603 | 57 | 227 | 0.0 | 4.0 | 0.00 | 0.42 | 0.39 | 92 | 1011.2 |
| 20260506173504 | 57 | 203 | 0.0 | 2.0 | 0.00 | 0.42 | 0.39 | 92 | 1011.3 |
| 20260506173403 | 57 | 203 | 0.0 | 2.0 | 0.00 | 0.42 | 0.39 | 92 | 1011.3 |
| 20260506173303 | 57 | 203 | 0.0 | 2.0 | 0.00 | 0.42 | 0.39 | 92 | 1011.2 |
| 20260506173204 | 57 | 203 | 0.0 | 2.0 | 0.00 | 0.42 | 0.39 | 92 | 1011.1 |
| 20260506173104 | 57 | 203 | 0.0 | 2.0 | 0.00 | 0.42 | 0.39 | 92 | 1011.1 |
| 20260506173003 | 57 | 203 | 0.0 | 2.0 | 0.00 | 0.42 | 0.39 | 92 | 1011.0 |
| 20260506172904 | 57 | 203 | 0.0 | 2.0 | 0.00 | 0.42 | 0.39 | 92 | 1011.0 |
| 20260506172804 | 57 | 203 | 0.0 | 2.0 | 0.00 | 0.42 | 0.39 | 92 | 1011.1 |
| 20260506172703 | 57 | 203 | 0.0 | 2.0 | 0.00 | 0.42 | 0.39 | 92 | 1011.2 |
| 20260506172604 | 57 | 203 | 0.0 | 3.0 | 0.00 | 0.42 | 0.39 | 92 | 1011.2 |
| 20260506172503 | 57 | 204 | 0.0 | 3.0 | 0.00 | 0.42 | 0.39 | 92 | 1011.1 |
| 20260506172404 | 57 | 212 | 0.0 | 3.0 | 0.00 | 0.42 | 0.39 | 92 | 1011.1 |
| 20260506172306 | 57 | 215 | 0.0 | 3.0 | 0.00 | 0.42 | 0.39 | 92 | 1011.1 |
| 20260506172218 | 57 | 219 | 0.0 | 3.0 | 0.00 | 0.42 | 0.39 | 92 | 1011.2 |
| 20260506172204 | 57 | 221 | 0.0 | 3.0 | 0.00 | 0.42 | 0.39 | 92 | 1011.2 |
| 20260506172104 | 57 | 226 | 0.0 | 3.0 | 0.00 | 0.42 | 0.39 | 92 | 1011.2 |
| 20260506171904 | 57 | 239 | 0.0 | 3.0 | 0.00 | 0.42 | 0.39 | 92 | 1011.1 |
| 20260506171803 | 57 | 239 | 0.0 | 3.0 | 0.00 | 0.42 | 0.39 | 93 | 1011.1 |
| 20260506171704 | 57 | 251 | 0.0 | 3.0 | 0.00 | 0.42 | 0.39 | 92 | 1011.1 |
| 20260506171603 | 57 | 285 | 0.0 | 1.0 | 0.00 | 0.42 | 0.39 | 92 | 1011.1 |
| 20260506171504 | 57 | 285 | 0.0 | 2.0 | 0.00 | 0.42 | 0.39 | 92 | 1011.1 |
| 20260506171403 | 57 | 285 | 0.0 | 3.0 | 0.00 | 0.42 | 0.39 | 93 | 1011.1 |
| 20260506171303 | 57 | 285 | 0.0 | 3.0 | 0.00 | 0.42 | 0.39 | 93 | 1011.1 |
| 20260506171203 | 57 | 285 | 0.0 | 3.0 | 0.00 | 0.42 | 0.39 | 93 | 1011.0 |
| 20260506171103 | 57 | 285 | 0.0 | 3.0 | 0.00 | 0.42 | 0.39 | 93 | 1011.0 |
| 20260506171003 | 57 | 285 | 0.0 | 3.0 | 0.00 | 0.42 | 0.39 | 93 | 1011.0 |
| 20260506170903 | 57 | 285 | 0.0 | 3.0 | 0.00 | 0.42 | 0.39 | 93 | 1011.1 |
| 20260506170803 | 57 | 285 | 0.0 | 3.0 | 0.00 | 0.42 | 0.39 | 93 | 1011.1 |
| 20260506170703 | 57 | 285 | 0.0 | 3.0 | 0.00 | 0.42 | 0.39 | 93 | 1011.2 |
| 20260506170603 | 57 | 285 | 0.0 | 3.0 | 0.00 | 0.42 | 0.39 | 93 | 1011.2 |
| 20260506170404 | 57 | 285 | 0.0 | 2.0 | 0.00 | 0.42 | 0.39 | 93 | 1011.3 |
| 20260506170303 | 57 | 285 | 0.0 | 2.0 | 0.00 | 0.42 | 0.39 | 93 | 1011.3 |
| 20260506170203 | 57 | 285 | 0.0 | 2.0 | 0.00 | 0.42 | 0.39 | 93 | 1011.3 |
| 20260506170103 | 57 | 285 | 1.0 | 3.0 | 0.00 | 0.42 | 0.39 | 93 | 1011.2 |
| 20260506170004 | 57 | 285 | 1.0 | 3.0 | 0.00 | 0.42 | 0.39 | 93 | 1011.2 |
| 20260506165904 | 57 | 285 | 1.0 | 3.0 | 0.00 | 0.42 | 0.39 | 93 | 1011.1 |
| 20260506165803 | 57 | 285 | 1.0 | 3.0 | 0.00 | 0.42 | 0.39 | 93 | 1011.1 |
| 20260506165703 | 57 | 285 | 1.0 | 3.0 | 0.00 | 0.42 | 0.39 | 93 | 1011.2 |
| 20260506165603 | 57 | 285 | 1.0 | 3.0 | 0.00 | 0.42 | 0.39 | 93 | 1011.2 |
| 20260506165503 | 57 | 286 | 1.0 | 3.0 | 0.00 | 0.42 | 0.39 | 93 | 1011.2 |
| 20260506165403 | 57 | 285 | 0.0 | 3.0 | 0.00 | 0.42 | 0.39 | 93 | 1011.2 |
| 20260506165305 | 57 | 277 | 0.0 | 3.0 | 0.00 | 0.42 | 0.39 | 93 | 1011.1 |
| 20260506165203 | 57 | 273 | 0.0 | 3.0 | 0.00 | 0.42 | 0.39 | 93 | 1011.1 |
| 20260506165103 | 57 | 262 | 0.0 | 2.0 | 0.00 | 0.42 | 0.39 | 93 | 1011.1 |
| 20260506165003 | 57 | 252 | 0.0 | 2.0 | 0.00 | 0.42 | 0.39 | 93 | 1011.1 |
| 20260506164918 | 57 | 234 | 0.0 | 2.0 | 0.00 | 0.42 | 0.39 | 93 | 1011.1 |
| 20260506164903 | 57 | 223 | 0.0 | 2.0 | 0.00 | 0.42 | 0.39 | 93 | 1011.1 |
| 20260506164804 | 57 | 224 | 0.0 | 2.0 | 0.00 | 0.42 | 0.39 | 93 | 1011.2 |
| 20260506164603 | 57 | 238 | 0.0 | 2.0 | 0.00 | 0.42 | 0.39 | 93 | 1011.3 |
| 20260506164504 | 57 | 242 | 0.0 | 3.0 | 0.00 | 0.42 | 0.39 | 93 | 1011.3 |
| 20260506164404 | 57 | 249 | 0.0 | 3.0 | 0.00 | 0.42 | 0.39 | 93 | 1011.2 |
| 20260506164318 | 57 | 255 | 0.0 | 3.0 | 0.00 | 0.42 | 0.39 | 93 | 1011.2 |
| 20260506164303 | 57 | 270 | 0.0 | 3.0 | 0.00 | 0.42 | 0.39 | 93 | 1011.2 |
| 20260506164204 | 57 | 279 | 0.0 | 3.0 | 0.00 | 0.42 | 0.39 | 93 | 1011.2 |
| 20260506163903 | 57 | 277 | 0.0 | 3.0 | 0.00 | 0.42 | 0.39 | 93 | 1011.1 |
| 20260506163803 | 57 | 277 | 0.0 | 3.0 | 0.00 | 0.42 | 0.39 | 93 | 1011.1 |
| 20260506163704 | 57 | 275 | 0.0 | 3.0 | 0.00 | 0.42 | 0.39 | 93 | 1011.1 |
| 20260506163604 | 57 | 276 | 0.0 | 3.0 | 0.00 | 0.42 | 0.39 | 93 | 1011.0 |
| 20260506163503 | 57 | 275 | 0.0 | 2.0 | 0.00 | 0.42 | 0.39 | 93 | 1011.0 |
| 20260506163403 | 57 | 276 | 0.0 | 2.0 | 0.00 | 0.42 | 0.39 | 93 | 1011.0 |
| 20260506163303 | 57 | 281 | 0.0 | 2.0 | 0.00 | 0.42 | 0.39 | 93 | 1011.1 |
| 20260506163103 | 57 | 283 | 1.0 | 4.0 | 0.00 | 0.42 | 0.39 | 93 | 1011.2 |
| 20260506163003 | 57 | 282 | 1.0 | 4.0 | 0.00 | 0.42 | 0.39 | 93 | 1011.3 |
| 20260506162903 | 57 | 281 | 1.0 | 4.0 | 0.00 | 0.42 | 0.39 | 93 | 1011.3 |
| 20260506162803 | 57 | 282 | 1.0 | 4.0 | 0.00 | 0.42 | 0.39 | 93 | 1011.3 |
| 20260506162717 | 57 | 284 | 1.0 | 4.0 | 0.00 | 0.42 | 0.39 | 93 | 1011.3 |
| 20260506162703 | 57 | 288 | 1.0 | 4.0 | 0.00 | 0.42 | 0.39 | 93 | 1011.3 |
| 20260506162603 | 57 | 300 | 1.0 | 4.0 | 0.00 | 0.42 | 0.39 | 93 | 1011.3 |
| 20260506162404 | 57 | 322 | 1.0 | 4.0 | 0.00 | 0.42 | 0.39 | 93 | 1011.3 |
| 20260506162306 | 57 | 330 | 1.0 | 4.0 | 0.00 | 0.42 | 0.39 | 93 | 1011.2 |
| 20260506162203 | 57 | 4 | 1.0 | 4.0 | 0.00 | 0.42 | 0.39 | 93 | 1011.2 |
| 20260506162103 | 57 | 24 | 1.0 | 2.0 | 0.00 | 0.42 | 0.39 | 93 | 1011.2 |
| 20260506162004 | 57 | 26 | 1.0 | 2.0 | 0.00 | 0.42 | 0.39 | 93 | 1011.1 |
| 20260506161903 | 57 | 34 | 1.0 | 3.0 | 0.00 | 0.42 | 0.39 | 93 | 1011.1 |
| 20260506161803 | 57 | 34 | 1.0 | 3.0 | 0.00 | 0.42 | 0.39 | 93 | 1011.1 |
| 20260506161704 | 57 | 35 | 1.0 | 3.0 | 0.00 | 0.42 | 0.39 | 93 | 1011.1 |
| 20260506161604 | 57 | 37 | 0.0 | 3.0 | 0.00 | 0.42 | 0.39 | 94 | 1011.1 |
| 20260506161504 | 57 | 38 | 0.0 | 3.0 | 0.00 | 0.42 | 0.39 | 94 | 1011.0 |
| 20260506161403 | 57 | 41 | 1.0 | 3.0 | 0.00 | 0.42 | 0.39 | 94 | 1011.0 |
| 20260506161218 | 57 | 35 | 1.0 | 3.0 | 0.00 | 0.42 | 0.39 | 93 | 1011.0 |
| 20260506161203 | 57 | 33 | 1.0 | 3.0 | 0.00 | 0.42 | 0.39 | 93 | 1011.0 |
| 20260506161104 | 56 | 11 | 0.0 | 3.0 | 0.00 | 0.42 | 0.39 | 93 | 1011.0 |
| 20260506160903 | 56 | 268 | 0.0 | 3.0 | 0.00 | 0.42 | 0.39 | 93 | 1011.0 |
| 20260506160803 | 56 | 268 | 0.0 | 3.0 | 0.00 | 0.42 | 0.39 | 93 | 1010.9 |
| 20260506160704 | 56 | 268 | 0.0 | 3.0 | 0.00 | 0.42 | 0.39 | 93 | 1010.9 |
| 20260506160604 | 56 | 264 | 0.0 | 3.0 | 0.00 | 0.42 | 0.39 | 93 | 1010.9 |
| 20260506160504 | 56 | 263 | 0.0 | 3.0 | 0.00 | 0.42 | 0.39 | 93 | 1011.0 |
| 20260506160304 | 56 | 242 | 0.0 | 3.0 | 0.00 | 0.42 | 0.39 | 94 | 1011.0 |
| 20260506160204 | 56 | 234 | 0.0 | 3.0 | 0.00 | 0.42 | 0.39 | 94 | 1011.0 |
| 20260506160004 | 56 | 208 | 0.0 | 2.0 | 0.00 | 0.42 | 0.39 | 94 | 1011.1 |
| 20260506155918 | 56 | 208 | 0.0 | 2.0 | 0.00 | 0.42 | 0.39 | 94 | 1011.1 |
| 20260506155904 | 56 | 208 | 0.0 | 2.0 | 0.00 | 0.42 | 0.39 | 94 | 1011.2 |
| 20260506155803 | 56 | 208 | 0.0 | 2.0 | 0.00 | 0.42 | 0.39 | 94 | 1011.2 |
| 20260506155603 | 56 | 226 | 0.0 | 2.0 | 0.00 | 0.42 | 0.39 | 94 | 1011.4 |
| 20260506155504 | 56 | 227 | 0.0 | 2.0 | 0.00 | 0.42 | 0.39 | 94 | 1011.4 |
| 20260506155403 | 56 | 232 | 0.0 | 2.0 | 0.00 | 0.42 | 0.39 | 94 | 1011.3 |
| 20260506155306 | 56 | 245 | 1.0 | 2.0 | 0.00 | 0.42 | 0.39 | 94 | 1011.3 |
| 20260506155204 | 56 | 261 | 1.0 | 2.0 | 0.00 | 0.42 | 0.39 | 94 | 1011.3 |
| 20260506155104 | 56 | 279 | 1.0 | 2.0 | 0.00 | 0.42 | 0.39 | 94 | 1011.3 |
| 20260506155003 | 56 | 283 | 1.0 | 2.0 | 0.00 | 0.42 | 0.39 | 94 | 1011.2 |
| 20260506154918 | 56 | 297 | 1.0 | 2.0 | 0.00 | 0.42 | 0.39 | 94 | 1011.2 |
| 20260506154904 | 56 | 301 | 1.0 | 3.0 | 0.00 | 0.42 | 0.39 | 94 | 1011.2 |
| 20260506154818 | 56 | 309 | 1.0 | 3.0 | 0.00 | 0.42 | 0.39 | 94 | 1011.2 |
| 20260506154804 | 56 | 313 | 1.0 | 3.0 | 0.00 | 0.42 | 0.39 | 94 | 1011.2 |
| 20260506154518 | 56 | 295 | 1.0 | 3.0 | 0.00 | 0.42 | 0.39 | 94 | 1011.2 |
| 20260506154503 | 56 | 289 | 1.0 | 3.0 | 0.00 | 0.42 | 0.39 | 94 | 1011.2 |
| 20260506154403 | 56 | 277 | 1.0 | 3.0 | 0.00 | 0.42 | 0.39 | 94 | 1011.1 |
| 20260506154203 | 56 | 209 | 0.0 | 3.0 | 0.00 | 0.42 | 0.39 | 94 | 1011.2 |
| 20260506154103 | 56 | 184 | 0.0 | 3.0 | 0.00 | 0.42 | 0.39 | 94 | 1011.3 |
| 20260506154004 | 56 | 181 | 0.0 | 3.0 | 0.00 | 0.42 | 0.39 | 94 | 1011.3 |
| 20260506153903 | 56 | 169 | 0.0 | 2.0 | 0.00 | 0.42 | 0.39 | 94 | 1011.2 |
| 20260506153804 | 56 | 169 | 0.0 | 1.0 | 0.00 | 0.42 | 0.39 | 94 | 1011.2 |
| 20260506153704 | 56 | 169 | 0.0 | 1.0 | 0.00 | 0.42 | 0.39 | 94 | 1011.2 |
| 20260506153603 | 56 | 169 | 0.0 | 1.0 | 0.00 | 0.42 | 0.39 | 94 | 1011.1 |
| 20260506153504 | 56 | 169 | 0.0 | 1.0 | 0.00 | 0.42 | 0.39 | 94 | 1011.1 |
| 20260506153403 | 56 | 175 | 0.0 | 2.0 | 0.00 | 0.42 | 0.39 | 94 | 1011.2 |
| 20260506153304 | 56 | 178 | 0.0 | 2.0 | 0.00 | 0.42 | 0.39 | 94 | 1011.2 |
| 20260506153203 | 56 | 206 | 0.0 | 2.0 | 0.00 | 0.42 | 0.39 | 94 | 1011.1 |
| 20260506153116 | 56 | 266 | 0.0 | 4.0 | 0.00 | 0.42 | 0.39 | 94 | 1011.1 |
| 20260506153104 | 56 | 265 | 0.0 | 4.0 | 0.00 | 0.42 | 0.39 | 94 | 1011.1 |
| 20260506153017 | 56 | 258 | 1.0 | 4.0 | 0.00 | 0.42 | 0.39 | 94 | 1011.1 |
| 20260506153003 | 56 | 257 | 1.0 | 4.0 | 0.00 | 0.42 | 0.39 | 94 | 1011.1 |
| 20260506152819 | 56 | 257 | 1.0 | 4.0 | 0.00 | 0.42 | 0.39 | 94 | 1011.0 |
| 20260506152703 | 56 | 258 | 1.0 | 4.0 | 0.00 | 0.42 | 0.39 | 94 | 1010.9 |
| 20260506152518 | 56 | 272 | 1.0 | 4.0 | 0.00 | 0.42 | 0.39 | 94 | 1010.8 |
| 20260506152504 | 56 | 274 | 1.0 | 4.0 | 0.00 | 0.42 | 0.39 | 94 | 1010.8 |
| 20260506152404 | 56 | 279 | 1.0 | 4.0 | 0.00 | 0.42 | 0.39 | 94 | 1010.9 |
| 20260506152203 | 56 | 282 | 1.0 | 4.0 | 0.00 | 0.42 | 0.39 | 94 | 1010.9 |
| 20260506152104 | 56 | 278 | 1.0 | 4.0 | 0.00 | 0.42 | 0.39 | 94 | 1010.8 |
| 20260506152003 | 56 | 286 | 1.0 | 4.0 | 0.00 | 0.42 | 0.39 | 94 | 1010.8 |
| 20260506151903 | 56 | 297 | 0.0 | 2.0 | 0.00 | 0.42 | 0.39 | 94 | 1010.8 |
| 20260506151804 | 56 | 303 | 0.0 | 2.0 | 0.00 | 0.42 | 0.39 | 94 | 1010.7 |
| 20260506151703 | 56 | 308 | 0.0 | 2.0 | 0.00 | 0.42 | 0.39 | 94 | 1010.7 |
| 20260506151604 | 56 | 308 | 0.0 | 2.0 | 0.00 | 0.42 | 0.39 | 94 | 1010.7 |
| 20260506151503 | 56 | 308 | 0.0 | 2.0 | 0.00 | 0.42 | 0.39 | 94 | 1010.7 |
| 20260506151403 | 56 | 308 | 0.0 | 2.0 | 0.00 | 0.42 | 0.39 | 94 | 1010.7 |
| 20260506151303 | 56 | 307 | 0.0 | 2.0 | 0.00 | 0.42 | 0.39 | 94 | 1010.6 |
| 20260506151203 | 56 | 302 | 0.0 | 2.0 | 0.00 | 0.42 | 0.39 | 94 | 1010.6 |
| 20260506151104 | 56 | 301 | 0.0 | 3.0 | 0.00 | 0.42 | 0.39 | 94 | 1010.7 |
| 20260506151017 | 56 | 300 | 0.0 | 3.0 | 0.00 | 0.42 | 0.39 | 94 | 1010.7 |
| 20260506151003 | 56 | 299 | 0.0 | 3.0 | 0.00 | 0.42 | 0.39 | 94 | 1010.8 |
| 20260506150903 | 56 | 298 | 0.0 | 3.0 | 0.00 | 0.42 | 0.39 | 94 | 1010.8 |
| 20260506150704 | 56 | 305 | 0.0 | 4.0 | 0.00 | 0.42 | 0.39 | 94 | 1010.8 |
| 20260506150603 | 56 | 305 | 0.0 | 4.0 | 0.00 | 0.42 | 0.39 | 94 | 1010.7 |
| 20260506150503 | 56 | 305 | 1.0 | 4.0 | 0.00 | 0.42 | 0.39 | 94 | 1010.7 |
| 20260506150404 | 56 | 302 | 1.0 | 4.0 | 0.00 | 0.42 | 0.39 | 94 | 1010.7 |
| 20260506150305 | 56 | 302 | 1.0 | 4.0 | 0.00 | 0.42 | 0.39 | 94 | 1010.7 |
| 20260506150203 | 56 | 301 | 0.0 | 4.0 | 0.00 | 0.42 | 0.39 | 94 | 1010.7 |
| 20260506150005 | 56 | 302 | 0.0 | 4.0 | 0.00 | 0.42 | 0.39 | 94 | 1010.6 |
| 20260506145903 | 56 | 298 | 1.0 | 4.0 | 0.00 | 0.42 | 0.39 | 94 | 1010.6 |
| 20260506145803 | 56 | 295 | 0.0 | 4.0 | 0.00 | 0.42 | 0.39 | 94 | 1010.5 |
| 20260506145703 | 56 | 292 | 1.0 | 3.0 | 0.00 | 0.42 | 0.39 | 94 | 1010.5 |
| 20260506145603 | 56 | 296 | 1.0 | 4.0 | 0.00 | 0.42 | 0.39 | 94 | 1010.4 |
| 20260506145518 | 56 | 294 | 1.0 | 4.0 | 0.00 | 0.42 | 0.39 | 94 | 1010.4 |
| 20260506145503 | 56 | 293 | 1.0 | 4.0 | 0.00 | 0.42 | 0.39 | 94 | 1010.4 |
| 20260506145404 | 56 | 296 | 1.0 | 5.0 | 0.00 | 0.42 | 0.39 | 94 | 1010.4 |
| 20260506145204 | 56 | 299 | 1.0 | 5.0 | 0.00 | 0.42 | 0.39 | 94 | 1010.4 |
| 20260506145103 | 56 | 297 | 1.0 | 5.0 | 0.00 | 0.42 | 0.39 | 94 | 1010.4 |
| 20260506145003 | 56 | 297 | 1.0 | 5.0 | 0.00 | 0.42 | 0.39 | 94 | 1010.4 |
| 20260506144903 | 56 | 299 | 1.0 | 5.0 | 0.00 | 0.42 | 0.39 | 94 | 1010.4 |
| 20260506144804 | 56 | 299 | 1.0 | 5.0 | 0.00 | 0.42 | 0.39 | 94 | 1010.4 |
| 20260506144704 | 56 | 299 | 1.0 | 5.0 | 0.00 | 0.42 | 0.39 | 94 | 1010.4 |
| 20260506144619 | 56 | 298 | 1.0 | 5.0 | 0.00 | 0.42 | 0.39 | 94 | 1010.4 |
| 20260506144604 | 56 | 297 | 1.0 | 5.0 | 0.00 | 0.42 | 0.39 | 94 | 1010.4 |
| 20260506144503 | 56 | 302 | 1.0 | 5.0 | 0.00 | 0.42 | 0.39 | 94 | 1010.3 |
| 20260506144304 | 56 | 284 | 0.0 | 3.0 | 0.00 | 0.42 | 0.39 | 94 | 1010.2 |
| 20260506144217 | 56 | 289 | 0.0 | 3.0 | 0.00 | 0.42 | 0.39 | 94 | 1010.2 |
| 20260506144203 | 56 | 290 | 0.0 | 3.0 | 0.00 | 0.42 | 0.39 | 94 | 1010.2 |
| 20260506144104 | 56 | 294 | 0.0 | 3.0 | 0.00 | 0.42 | 0.39 | 94 | 1010.2 |
| 20260506143903 | 56 | 303 | 1.0 | 3.0 | 0.01 | 0.42 | 0.39 | 94 | 1010.1 |
| 20260506143804 | 56 | 303 | 1.0 | 3.0 | 0.01 | 0.42 | 0.39 | 94 | 1010.1 |
| 20260506143603 | 56 | 303 | 1.0 | 3.0 | 0.01 | 0.42 | 0.39 | 94 | 1010.1 |
| 20260506143504 | 56 | 304 | 1.0 | 3.0 | 0.01 | 0.42 | 0.39 | 94 | 1009.9 |
| 20260506143403 | 56 | 307 | 0.0 | 3.0 | 0.01 | 0.42 | 0.39 | 94 | 1009.9 |
| 20260506143303 | 56 | 312 | 0.0 | 3.0 | 0.01 | 0.42 | 0.39 | 94 | 1009.9 |
| 20260506143217 | 56 | 323 | 0.0 | 3.0 | 0.01 | 0.42 | 0.39 | 94 | 1009.8 |
| 20260506143203 | 56 | 329 | 0.0 | 3.0 | 0.01 | 0.42 | 0.39 | 94 | 1009.8 |
| 20260506143118 | 56 | 339 | 0.0 | 3.0 | 0.01 | 0.42 | 0.39 | 94 | 1009.8 |
| 20260506143103 | 56 | 344 | 0.0 | 3.0 | 0.01 | 0.42 | 0.39 | 94 | 1009.8 |
| 20260506142803 | 56 | 12 | 0.0 | 2.0 | 0.02 | 0.42 | 0.39 | 94 | 1009.8 |
| 20260506142703 | 56 | 12 | 0.0 | 2.0 | 0.02 | 0.42 | 0.39 | 94 | 1009.9 |
| 20260506142604 | 56 | 12 | 0.0 | 2.0 | 0.02 | 0.42 | 0.39 | 94 | 1009.9 |
| 20260506142503 | 56 | 12 | 0.0 | 2.0 | 0.02 | 0.42 | 0.39 | 94 | 1009.8 |
| 20260506142403 | 56 | 12 | 0.0 | 2.0 | 0.02 | 0.42 | 0.39 | 94 | 1009.8 |
| 20260506142305 | 56 | 7 | 0.0 | 3.0 | 0.02 | 0.42 | 0.39 | 94 | 1009.8 |
| 20260506142220 | 56 | 4 | 0.0 | 3.0 | 0.03 | 0.42 | 0.39 | 94 | 1009.9 |
| 20260506142203 | 56 | 3 | 0.0 | 3.0 | 0.03 | 0.42 | 0.39 | 94 | 1009.9 |
| 20260506142103 | 56 | 2 | 0.0 | 3.0 | 0.03 | 0.42 | 0.39 | 94 | 1009.8 |
| 20260506141904 | 56 | 347 | 0.0 | 3.0 | 0.04 | 0.42 | 0.39 | 94 | 1009.8 |
| 20260506141804 | 56 | 330 | 0.0 | 3.0 | 0.05 | 0.42 | 0.39 | 94 | 1009.8 |
| 20260506141718 | 56 | 326 | 1.0 | 3.0 | 0.05 | 0.42 | 0.39 | 94 | 1009.7 |
| 20260506141704 | 56 | 325 | 1.0 | 3.0 | 0.05 | 0.42 | 0.39 | 94 | 1009.7 |
| 20260506141603 | 56 | 319 | 1.0 | 3.0 | 0.05 | 0.42 | 0.39 | 94 | 1009.7 |
| 20260506141404 | 56 | 312 | 1.0 | 3.0 | 0.06 | 0.42 | 0.39 | 94 | 1009.7 |
| 20260506141304 | 56 | 306 | 1.0 | 3.0 | 0.06 | 0.42 | 0.39 | 94 | 1009.7 |
| 20260506141203 | 56 | 301 | 1.0 | 3.0 | 0.06 | 0.42 | 0.39 | 94 | 1009.6 |
| 20260506141118 | 56 | 295 | 1.0 | 3.0 | 0.06 | 0.42 | 0.39 | 94 | 1009.6 |
| 20260506141103 | 56 | 294 | 1.0 | 3.0 | 0.06 | 0.42 | 0.39 | 94 | 1009.6 |
| 20260506141003 | 56 | 291 | 1.0 | 3.0 | 0.06 | 0.42 | 0.39 | 94 | 1009.6 |
| 20260506140804 | 56 | 268 | 0.0 | 3.0 | 0.06 | 0.42 | 0.39 | 94 | 1009.6 |
| 20260506140703 | 56 | 241 | 0.0 | 3.0 | 0.06 | 0.42 | 0.39 | 94 | 1009.6 |
| 20260506140603 | 56 | 222 | 0.0 | 2.0 | 0.07 | 0.42 | 0.39 | 94 | 1009.6 |
| 20260506140503 | 56 | 222 | 0.0 | 2.0 | 0.07 | 0.42 | 0.39 | 94 | 1009.6 |
| 20260506140403 | 56 | 230 | 0.0 | 2.0 | 0.07 | 0.42 | 0.39 | 94 | 1009.7 |
| 20260506140303 | 56 | 232 | 0.0 | 2.0 | 0.07 | 0.42 | 0.39 | 94 | 1009.6 |
| 20260506140203 | 56 | 242 | 0.0 | 2.0 | 0.07 | 0.42 | 0.39 | 93 | 1009.6 |
| 20260506140018 | 56 | 245 | 1.0 | 3.0 | 0.07 | 0.42 | 0.39 | 94 | 1009.7 |
| 20260506140003 | 56 | 243 | 1.0 | 3.0 | 0.07 | 0.42 | 0.39 | 94 | 1009.7 |
| 20260506135903 | 56 | 242 | 1.0 | 3.0 | 0.07 | 0.42 | 0.39 | 94 | 1009.7 |
| 20260506135818 | 56 | 239 | 1.0 | 3.0 | 0.07 | 0.42 | 0.39 | 94 | 1009.7 |
| 20260506135704 | 56 | 232 | 1.0 | 3.0 | 0.07 | 0.42 | 0.39 | 94 | 1009.7 |
| 20260506135503 | 56 | 234 | 1.0 | 3.0 | 0.07 | 0.42 | 0.39 | 94 | 1009.6 |
| 20260506135403 | 56 | 231 | 1.0 | 3.0 | 0.07 | 0.42 | 0.39 | 94 | 1009.3 |
| 20260506135305 | 56 | 230 | 1.0 | 3.0 | 0.07 | 0.42 | 0.39 | 93 | 1009.0 |
| 20260506135203 | 55 | 226 | 1.0 | 3.0 | 0.07 | 0.42 | 0.39 | 93 | 1009.0 |
| 20260506135103 | 55 | 216 | 1.0 | 2.0 | 0.07 | 0.42 | 0.39 | 93 | 1008.9 |
| 20260506135003 | 55 | 263 | 1.0 | 2.0 | 0.07 | 0.42 | 0.39 | 93 | 1008.9 |
| 20260506134904 | 55 | 301 | 1.0 | 2.0 | 0.07 | 0.42 | 0.39 | 93 | 1008.9 |
| 20260506134804 | 55 | 349 | 1.0 | 3.0 | 0.07 | 0.42 | 0.39 | 93 | 1008.7 |
| 20260506134718 | 55 | 360 | 1.0 | 3.0 | 0.07 | 0.42 | 0.39 | 93 | 1008.7 |
| 20260506134703 | 55 | 2 | 1.0 | 3.0 | 0.07 | 0.42 | 0.39 | 93 | 1008.7 |
| 20260506134603 | 55 | 8 | 1.0 | 3.0 | 0.07 | 0.42 | 0.39 | 93 | 1008.1 |
| 20260506134403 | 55 | 16 | 1.0 | 5.0 | 0.07 | 0.42 | 0.39 | 93 | 1007.9 |
| 20260506134303 | 55 | 16 | 2.0 | 5.0 | 0.07 | 0.42 | 0.39 | 93 | 1007.6 |
| 20260506134203 | 55 | 19 | 2.0 | 5.0 | 0.07 | 0.42 | 0.39 | 93 | 1007.6 |
| 20260506134103 | 55 | 17 | 2.0 | 5.0 | 0.07 | 0.42 | 0.39 | 93 | 1007.5 |
| 20260506134003 | 55 | 18 | 2.0 | 5.0 | 0.06 | 0.41 | 0.38 | 93 | 1007.5 |
| 20260506133903 | 55 | 17 | 2.0 | 5.0 | 0.06 | 0.41 | 0.38 | 93 | 1007.5 |
| 20260506133803 | 55 | 15 | 1.0 | 5.0 | 0.06 | 0.41 | 0.38 | 93 | 1007.3 |
| 20260506133703 | 55 | 8 | 2.0 | 5.0 | 0.06 | 0.41 | 0.38 | 93 | 1007.3 |
| 20260506133603 | 55 | 1 | 1.0 | 5.0 | 0.06 | 0.41 | 0.38 | 93 | 1007.1 |
| 20260506133503 | 55 | 348 | 1.0 | 5.0 | 0.06 | 0.41 | 0.38 | 93 | 1007.3 |
| 20260506133403 | 55 | 337 | 1.0 | 4.0 | 0.06 | 0.41 | 0.38 | 93 | 1007.3 |
| 20260506133303 | 55 | 318 | 1.0 | 4.0 | 0.06 | 0.41 | 0.38 | 93 | 1007.7 |
| 20260506133217 | 55 | 296 | 1.0 | 3.0 | 0.06 | 0.41 | 0.38 | 92 | 1007.7 |
| 20260506133203 | 55 | 287 | 1.0 | 3.0 | 0.06 | 0.41 | 0.38 | 92 | 1008.3 |
| 20260506133104 | 55 | 284 | 1.0 | 2.0 | 0.06 | 0.41 | 0.38 | 92 | 1008.3 |
| 20260506132904 | 56 | 284 | 1.0 | 2.0 | 0.06 | 0.41 | 0.38 | 92 | 1008.5 |
| 20260506132804 | 56 | 284 | 1.0 | 2.0 | 0.05 | 0.40 | 0.38 | 92 | 1008.8 |
| 20260506132718 | 56 | 284 | 1.0 | 2.0 | 0.05 | 0.40 | 0.37 | 92 | 1008.8 |
| 20260506132703 | 56 | 284 | 1.0 | 2.0 | 0.05 | 0.40 | 0.37 | 92 | 1009.0 |
| 20260506132603 | 56 | 284 | 1.0 | 2.0 | 0.05 | 0.40 | 0.37 | 92 | 1009.0 |
| 20260506132404 | 56 | 284 | 1.0 | 2.0 | 0.05 | 0.40 | 0.37 | 92 | 1009.3 |
| 20260506132307 | 56 | 284 | 1.0 | 2.0 | 0.05 | 0.40 | 0.37 | 92 | 1009.6 |
| 20260506132204 | 56 | 284 | 1.0 | 2.0 | 0.04 | 0.39 | 0.36 | 92 | 1009.7 |
| 20260506132118 | 56 | 284 | 1.0 | 2.0 | 0.04 | 0.39 | 0.36 | 92 | 1009.7 |
| 20260506132003 | 56 | 284 | 1.0 | 2.0 | 0.03 | 0.38 | 0.36 | 92 | 1010.1 |
| 20260506131917 | 56 | 283 | 1.0 | 2.0 | 0.03 | 0.38 | 0.35 | 92 | 1010.1 |
| 20260506131804 | 56 | 282 | 1.0 | 2.0 | 0.02 | 0.37 | 0.34 | 92 | 1010.4 |
| 20260506131603 | 56 | 282 | 0.0 | 2.0 | 0.02 | 0.37 | 0.34 | 92 | 1010.5 |
| 20260506131517 | 56 | 282 | 0.0 | 2.0 | 0.01 | 0.36 | 0.34 | 92 | 1010.5 |
| 20260506131503 | 56 | 282 | 0.0 | 2.0 | 0.01 | 0.36 | 0.33 | 92 | 1010.5 |
| 20260506131404 | 56 | 282 | 0.0 | 2.0 | 0.01 | 0.36 | 0.33 | 92 | 1010.5 |
| 20260506131318 | 56 | 282 | 0.0 | 2.0 | 0.01 | 0.36 | 0.33 | 92 | 1010.5 |
| 20260506131003 | 56 | 281 | 0.0 | 2.0 | 0.01 | 0.36 | 0.33 | 92 | 1010.4 |
| 20260506130904 | 56 | 282 | 0.0 | 2.0 | 0.01 | 0.36 | 0.33 | 92 | 1010.3 |
| 20260506130803 | 56 | 282 | 0.0 | 2.0 | 0.01 | 0.36 | 0.33 | 92 | 1010.3 |
| 20260506130703 | 56 | 282 | 1.0 | 2.0 | 0.01 | 0.36 | 0.33 | 92 | 1010.3 |
| 20260506130503 | 56 | 283 | 1.0 | 2.0 | 0.00 | 0.35 | 0.32 | 92 | 1010.2 |
| 20260506130403 | 56 | 280 | 1.0 | 3.0 | 0.00 | 0.35 | 0.32 | 92 | 1010.3 |
| 20260506130304 | 56 | 278 | 1.0 | 3.0 | 0.00 | 0.35 | 0.32 | 92 | 1010.3 |
| 20260506130203 | 56 | 278 | 1.0 | 3.0 | 0.00 | 0.35 | 0.32 | 92 | 1010.3 |
| 20260506130117 | 56 | 277 | 1.0 | 3.0 | 0.00 | 0.35 | 0.32 | 92 | 1010.3 |
| 20260506130103 | 56 | 276 | 1.0 | 3.0 | 0.00 | 0.35 | 0.32 | 92 | 1010.3 |
| 20260506130004 | 56 | 274 | 1.0 | 3.0 | 0.00 | 0.35 | 0.32 | 92 | 1010.3 |
| 20260506125804 | 56 | 270 | 1.0 | 3.0 | 0.00 | 0.35 | 0.32 | 92 | 1010.3 |
| 20260506125703 | 56 | 267 | 1.0 | 3.0 | 0.00 | 0.35 | 0.32 | 92 | 1010.1 |
| 20260506125603 | 57 | 266 | 1.0 | 3.0 | 0.00 | 0.35 | 0.32 | 92 | 1010.0 |
| 20260506125503 | 57 | 268 | 1.0 | 3.0 | 0.00 | 0.35 | 0.32 | 92 | 1010.0 |
| 20260506125403 | 57 | 273 | 0.0 | 2.0 | 0.00 | 0.35 | 0.32 | 92 | 1009.9 |
| 20260506125305 | 57 | 282 | 1.0 | 2.0 | 0.00 | 0.35 | 0.32 | 92 | 1009.9 |
| 20260506125203 | 57 | 287 | 1.0 | 2.0 | 0.00 | 0.35 | 0.32 | 92 | 1009.8 |
| 20260506125103 | 57 | 292 | 1.0 | 2.0 | 0.00 | 0.35 | 0.32 | 92 | 1009.8 |
| 20260506125003 | 57 | 296 | 1.0 | 3.0 | 0.00 | 0.35 | 0.32 | 92 | 1009.8 |
| 20260506124919 | 57 | 299 | 1.0 | 3.0 | 0.00 | 0.35 | 0.32 | 92 | 1009.8 |
| 20260506124904 | 57 | 301 | 1.0 | 3.0 | 0.00 | 0.35 | 0.32 | 92 | 1009.8 |
| 20260506124803 | 57 | 301 | 1.0 | 3.0 | 0.00 | 0.35 | 0.32 | 92 | 1009.8 |
| 20260506124603 | 57 | 309 | 1.0 | 3.0 | 0.00 | 0.35 | 0.32 | 92 | 1009.8 |
| 20260506124503 | 57 | 314 | 1.0 | 4.0 | 0.00 | 0.35 | 0.32 | 92 | 1009.8 |
| 20260506124403 | 57 | 315 | 1.0 | 4.0 | 0.00 | 0.35 | 0.32 | 92 | 1009.6 |
| 20260506124304 | 57 | 320 | 1.0 | 4.0 | 0.00 | 0.35 | 0.32 | 92 | 1009.7 |
| 20260506124204 | 57 | 326 | 1.0 | 4.0 | 0.00 | 0.35 | 0.32 | 92 | 1009.7 |
| 20260506124104 | 57 | 330 | 1.0 | 4.0 | 0.00 | 0.35 | 0.32 | 92 | 1009.7 |
| 20260506124004 | 57 | 333 | 1.0 | 4.0 | 0.00 | 0.35 | 0.32 | 92 | 1009.7 |
| 20260506123904 | 57 | 338 | 1.0 | 4.0 | 0.00 | 0.35 | 0.32 | 92 | 1009.6 |
| 20260506123817 | 57 | 338 | 1.0 | 4.0 | 0.00 | 0.35 | 0.32 | 92 | 1009.6 |
| 20260506123804 | 57 | 338 | 1.0 | 4.0 | 0.00 | 0.35 | 0.32 | 92 | 1009.5 |
| 20260506123703 | 57 | 338 | 1.0 | 4.0 | 0.00 | 0.35 | 0.32 | 92 | 1009.5 |
| 20260506123403 | 57 | 330 | 1.0 | 2.0 | 0.00 | 0.35 | 0.32 | 92 | 1009.4 |
| 20260506123303 | 57 | 321 | 1.0 | 2.0 | 0.00 | 0.35 | 0.32 | 92 | 1009.4 |
| 20260506123203 | 57 | 314 | 1.0 | 2.0 | 0.00 | 0.35 | 0.32 | 92 | 1009.4 |
| 20260506123103 | 57 | 313 | 1.0 | 2.0 | 0.00 | 0.35 | 0.32 | 92 | 1009.4 |
| 20260506123004 | 58 | 306 | 1.0 | 2.0 | 0.00 | 0.35 | 0.32 | 92 | 1009.4 |
| 20260506122903 | 58 | 299 | 1.0 | 4.0 | 0.00 | 0.35 | 0.32 | 92 | 1009.3 |
| 20260506122803 | 58 | 296 | 1.0 | 4.0 | 0.00 | 0.35 | 0.32 | 92 | 1009.2 |
| 20260506122703 | 58 | 281 | 1.0 | 4.0 | 0.00 | 0.35 | 0.32 | 92 | 1009.2 |
| 20260506122604 | 58 | 258 | 1.0 | 4.0 | 0.00 | 0.35 | 0.32 | 92 | 1009.1 |
| 20260506122504 | 58 | 247 | 1.0 | 4.0 | 0.00 | 0.35 | 0.32 | 92 | 1009.1 |
| 20260506122404 | 58 | 235 | 1.0 | 4.0 | 0.00 | 0.35 | 0.32 | 92 | 1009.1 |
| 20260506122305 | 58 | 229 | 1.0 | 4.0 | 0.00 | 0.35 | 0.32 | 92 | 1009.0 |
| 20260506122203 | 58 | 224 | 1.0 | 4.0 | 0.00 | 0.35 | 0.32 | 92 | 1009.0 |
| 20260506122104 | 58 | 223 | 1.0 | 4.0 | 0.00 | 0.35 | 0.32 | 92 | 1008.9 |
| 20260506122003 | 58 | 201 | 1.0 | 4.0 | 0.00 | 0.35 | 0.32 | 92 | 1008.8 |
| 20260506121903 | 58 | 194 | 1.0 | 4.0 | 0.00 | 0.35 | 0.32 | 92 | 1008.8 |
| 20260506121804 | 58 | 203 | 1.0 | 3.0 | 0.00 | 0.35 | 0.32 | 92 | 1008.7 |
| 20260506121703 | 58 | 218 | 1.0 | 3.0 | 0.00 | 0.35 | 0.32 | 92 | 1008.7 |
| 20260506121604 | 58 | 267 | 1.0 | 3.0 | 0.00 | 0.35 | 0.32 | 92 | 1008.7 |
| 20260506121517 | 58 | 290 | 1.0 | 3.0 | 0.00 | 0.35 | 0.32 | 92 | 1008.7 |
| 20260506121503 | 58 | 295 | 1.0 | 3.0 | 0.00 | 0.35 | 0.32 | 92 | 1008.7 |
| 20260506121404 | 58 | 303 | 1.0 | 3.0 | 0.00 | 0.35 | 0.32 | 92 | 1008.7 |
| 20260506121204 | 58 | 307 | 1.0 | 3.0 | 0.00 | 0.35 | 0.32 | 92 | 1008.6 |
| 20260506121103 | 58 | 308 | 1.0 | 3.0 | 0.00 | 0.35 | 0.32 | 92 | 1008.4 |
| 20260506120904 | 58 | 317 | 1.0 | 2.0 | 0.00 | 0.35 | 0.32 | 92 | 1008.4 |
| 20260506120804 | 58 | 317 | 1.0 | 2.0 | 0.00 | 0.35 | 0.32 | 92 | 1008.5 |
| 20260506120720 | 58 | 317 | 1.0 | 2.0 | 0.00 | 0.35 | 0.32 | 92 | 1008.5 |
| 20260506120519 | 58 | 317 | 0.0 | 2.0 | 0.00 | 0.35 | 0.32 | 92 | 1008.4 |
| 20260506120403 | 58 | 309 | 0.0 | 2.0 | 0.00 | 0.35 | 0.32 | 92 | 1008.4 |
| 20260506120203 | 58 | 306 | 0.0 | 3.0 | 0.00 | 0.35 | 0.32 | 92 | 1008.4 |
| 20260506120103 | 58 | 309 | 0.0 | 3.0 | 0.00 | 0.35 | 0.32 | 92 | 1008.4 |
| 20260506120004 | 58 | 310 | 0.0 | 3.0 | 0.00 | 0.35 | 0.32 | 92 | 1008.3 |
| 20260506115918 | 58 | 320 | 0.0 | 3.0 | 0.00 | 0.35 | 0.32 | 92 | 1008.3 |
| 20260506115903 | 58 | 325 | 0.0 | 3.0 | 0.00 | 0.35 | 0.32 | 92 | 1008.3 |
| 20260506115604 | 58 | 341 | 1.0 | 3.0 | 0.00 | 0.35 | 0.32 | 92 | 1008.0 |
| 20260506115504 | 58 | 342 | 1.0 | 3.0 | 0.01 | 0.35 | 0.32 | 92 | 1008.0 |
| 20260506115419 | 58 | 347 | 0.0 | 3.0 | 0.02 | 0.35 | 0.32 | 92 | 1008.0 |
| 20260506115404 | 59 | 349 | 0.0 | 3.0 | 0.02 | 0.35 | 0.32 | 92 | 1008.1 |
| 20260506115318 | 59 | 360 | 0.0 | 2.0 | 0.05 | 0.35 | 0.32 | 92 | 1008.1 |
| 20260506115307 | 59 | 1 | 0.0 | 2.0 | 0.05 | 0.35 | 0.32 | 92 | 1008.1 |
| 20260506115003 | 59 | 1 | 0.0 | 2.0 | 0.06 | 0.35 | 0.32 | 92 | 1007.9 |
| 20260506114903 | 59 | 358 | 0.0 | 2.0 | 0.06 | 0.35 | 0.32 | 92 | 1007.8 |
| 20260506114704 | 59 | 357 | 0.0 | 2.0 | 0.07 | 0.35 | 0.32 | 92 | 1008.0 |
| 20260506114603 | 59 | 290 | 0.0 | 1.0 | 0.07 | 0.35 | 0.32 | 92 | 1008.0 |
| 20260506114503 | 59 | 290 | 0.0 | 1.0 | 0.07 | 0.35 | 0.32 | 92 | 1007.9 |
| 20260506114403 | 59 | 290 | 0.0 | 1.0 | 0.08 | 0.35 | 0.32 | 92 | 1007.7 |
| 20260506114304 | 59 | 290 | 0.0 | 1.0 | 0.08 | 0.35 | 0.32 | 92 | 1007.7 |
| 20260506114203 | 59 | 290 | 0.0 | 1.0 | 0.08 | 0.35 | 0.32 | 92 | 1007.8 |
| 20260506114103 | 59 | 290 | 0.0 | 1.0 | 0.08 | 0.35 | 0.32 | 92 | 1007.8 |
| 20260506114003 | 59 | 290 | 0.0 | 1.0 | 0.08 | 0.35 | 0.32 | 92 | 1007.9 |
| 20260506113903 | 59 | 0 | 0.0 | 0.0 | 0.08 | 0.35 | 0.32 | 92 | 1007.8 |
| 20260506113804 | 59 | 0 | 0.0 | 0.0 | 0.08 | 0.35 | 0.32 | 92 | 1007.8 |
| 20260506113604 | 59 | 0 | 0.0 | 0.0 | 0.09 | 0.35 | 0.32 | 92 | 1007.5 |
| 20260506113503 | 59 | 0 | 0.0 | 0.0 | 0.10 | 0.35 | 0.32 | 92 | 1007.5 |
| 20260506113403 | 59 | 0 | 0.0 | 0.0 | 0.11 | 0.35 | 0.32 | 92 | 1007.5 |
| 20260506113303 | 59 | 0 | 0.0 | 0.0 | 0.11 | 0.35 | 0.32 | 92 | 1007.5 |
| 20260506113218 | 59 | 0 | 0.0 | 0.0 | 0.12 | 0.35 | 0.32 | 92 | 1007.5 |
| 20260506113204 | 59 | 0 | 0.0 | 0.0 | 0.12 | 0.35 | 0.32 | 91 | 1007.5 |
| 20260506113104 | 59 | 0 | 0.0 | 0.0 | 0.12 | 0.35 | 0.32 | 91 | 1007.5 |
| 20260506113018 | 59 | 0 | 0.0 | 0.0 | 0.12 | 0.35 | 0.32 | 91 | 1007.5 |
| 20260506112903 | 59 | 0 | 0.0 | 0.0 | 0.12 | 0.35 | 0.32 | 91 | 1007.4 |
| 20260506112704 | 59 | 0 | 0.0 | 0.0 | 0.12 | 0.35 | 0.32 | 91 | 1007.2 |
| 20260506112603 | 59 | 0 | 0.0 | 0.0 | 0.12 | 0.35 | 0.32 | 91 | 1007.2 |
| 20260506112403 | 59 | 0 | 0.0 | 0.0 | 0.12 | 0.35 | 0.32 | 91 | 1007.2 |
| 20260506112306 | 59 | 0 | 0.0 | 0.0 | 0.12 | 0.35 | 0.32 | 91 | 1007.2 |
| 20260506112204 | 59 | 0 | 0.0 | 0.0 | 0.12 | 0.35 | 0.32 | 91 | 1007.3 |
| 20260506112004 | 59 | 0 | 0.0 | 0.0 | 0.12 | 0.35 | 0.32 | 91 | 1007.2 |
| 20260506111904 | 59 | 0 | 0.0 | 0.0 | 0.12 | 0.35 | 0.32 | 91 | 1007.1 |
| 20260506111803 | 59 | 0 | 0.0 | 0.0 | 0.12 | 0.35 | 0.32 | 91 | 1007.1 |
| 20260506111703 | 59 | 0 | 0.0 | 0.0 | 0.12 | 0.35 | 0.32 | 91 | 1007.1 |
| 20260506111604 | 59 | 0 | 0.0 | 0.0 | 0.12 | 0.35 | 0.32 | 91 | 1007.0 |
| 20260506111503 | 59 | 0 | 0.0 | 0.0 | 0.12 | 0.35 | 0.32 | 91 | 1007.0 |
| 20260506111417 | 59 | 0 | 0.0 | 0.0 | 0.12 | 0.35 | 0.32 | 91 | 1007.0 |
| 20260506111404 | 59 | 0 | 0.0 | 0.0 | 0.12 | 0.35 | 0.32 | 90 | 1007.0 |
| 20260506111303 | 59 | 0 | 0.0 | 0.0 | 0.12 | 0.35 | 0.32 | 90 | 1007.1 |
| 20260506111104 | 59 | 0 | 0.0 | 0.0 | 0.12 | 0.35 | 0.32 | 90 | 1007.2 |
| 20260506111003 | 59 | 0 | 0.0 | 0.0 | 0.12 | 0.35 | 0.32 | 90 | 1007.2 |
| 20260506110903 | 59 | 0 | 0.0 | 0.0 | 0.12 | 0.35 | 0.32 | 90 | 1007.3 |
| 20260506110804 | 59 | 0 | 0.0 | 0.0 | 0.12 | 0.35 | 0.32 | 90 | 1007.4 |
| 20260506110704 | 59 | 0 | 0.0 | 0.0 | 0.12 | 0.35 | 0.32 | 90 | 1007.4 |
| 20260506110603 | 59 | 0 | 0.0 | 0.0 | 0.12 | 0.35 | 0.32 | 90 | 1007.3 |
| 20260506110503 | 59 | 0 | 0.0 | 0.0 | 0.12 | 0.35 | 0.32 | 90 | 1007.3 |
| 20260506110303 | 60 | 0 | 0.0 | 0.0 | 0.12 | 0.35 | 0.32 | 89 | 1007.4 |
| 20260506110203 | 60 | 0 | 0.0 | 0.0 | 0.12 | 0.35 | 0.32 | 89 | 1007.4 |
| 20260506110103 | 60 | 0 | 0.0 | 0.0 | 0.12 | 0.35 | 0.32 | 89 | 1007.6 |
| 20260506110004 | 60 | 0 | 0.0 | 0.0 | 0.12 | 0.35 | 0.32 | 89 | 1007.6 |
| 20260506105704 | 60 | 255 | 0.0 | 1.0 | 0.12 | 0.35 | 0.32 | 89 | 1007.6 |
| 20260506105603 | 60 | 255 | 0.0 | 1.0 | 0.12 | 0.35 | 0.32 | 89 | 1007.5 |
| 20260506105503 | 60 | 255 | 0.0 | 1.0 | 0.11 | 0.34 | 0.31 | 89 | 1007.4 |
| 20260506105305 | 60 | 255 | 0.0 | 1.0 | 0.07 | 0.30 | 0.27 | 89 | 1007.6 |
| 20260506105203 | 60 | 255 | 0.0 | 1.0 | 0.07 | 0.30 | 0.27 | 89 | 1007.6 |
| 20260506105103 | 60 | 255 | 0.0 | 1.0 | 0.06 | 0.29 | 0.26 | 89 | 1007.7 |
| 20260506105003 | 60 | 255 | 0.0 | 1.0 | 0.06 | 0.29 | 0.26 | 89 | 1007.8 |
| 20260506104918 | 60 | 0 | 0.0 | 0.0 | 0.07 | 0.29 | 0.26 | 88 | 1007.8 |
| 20260506104904 | 60 | 240 | 0.0 | 1.0 | 0.07 | 0.29 | 0.26 | 88 | 1007.8 |
| 20260506104803 | 61 | 240 | 0.0 | 1.0 | 0.06 | 0.28 | 0.25 | 88 | 1007.9 |
| 20260506104603 | 61 | 240 | 0.0 | 1.0 | 0.06 | 0.28 | 0.25 | 88 | 1007.8 |
| 20260506104504 | 61 | 240 | 0.0 | 1.0 | 0.06 | 0.28 | 0.25 | 88 | 1007.8 |
| 20260506104403 | 61 | 240 | 0.0 | 1.0 | 0.05 | 0.27 | 0.24 | 88 | 1007.8 |
| 20260506104303 | 61 | 240 | 0.0 | 1.0 | 0.05 | 0.27 | 0.24 | 88 | 1007.9 |
| 20260506104203 | 61 | 240 | 0.0 | 1.0 | 0.06 | 0.27 | 0.24 | 88 | 1007.9 |
| 20260506104003 | 61 | 240 | 0.0 | 1.0 | 0.08 | 0.27 | 0.24 | 88 | 1007.9 |
| 20260506103903 | 61 | 240 | 0.0 | 1.0 | 0.10 | 0.27 | 0.24 | 88 | 1007.9 |
| 20260506103803 | 61 | 245 | 0.0 | 2.0 | 0.11 | 0.27 | 0.24 | 88 | 1007.8 |
| 20260506103703 | 61 | 256 | 1.0 | 4.0 | 0.11 | 0.26 | 0.23 | 88 | 1007.8 |
| 20260506103603 | 61 | 273 | 1.0 | 4.0 | 0.12 | 0.26 | 0.23 | 88 | 1007.8 |
| 20260506103503 | 61 | 271 | 1.0 | 4.0 | 0.12 | 0.25 | 0.22 | 88 | 1008.1 |
| 20260506103404 | 61 | 269 | 1.0 | 4.0 | 0.13 | 0.24 | 0.21 | 88 | 1008.1 |
| 20260506103304 | 61 | 270 | 1.0 | 4.0 | 0.13 | 0.24 | 0.21 | 88 | 1008.1 |
| 20260506103218 | 62 | 268 | 1.0 | 4.0 | 0.13 | 0.23 | 0.20 | 88 | 1008.1 |
| 20260506103203 | 62 | 274 | 1.0 | 4.0 | 0.13 | 0.23 | 0.20 | 88 | 1008.1 |
| 20260506103104 | 62 | 275 | 1.0 | 4.0 | 0.14 | 0.23 | 0.20 | 88 | 1008.1 |
| 20260506103017 | 62 | 273 | 1.0 | 4.0 | 0.14 | 0.23 | 0.20 | 88 | 1007.9 |
| 20260506102903 | 62 | 267 | 1.0 | 5.0 | 0.15 | 0.23 | 0.20 | 87 | 1007.9 |
| 20260506102818 | 62 | 268 | 1.0 | 5.0 | 0.15 | 0.23 | 0.20 | 87 | 1007.9 |
| 20260506102704 | 62 | 262 | 1.0 | 5.0 | 0.15 | 0.23 | 0.20 | 87 | 1007.8 |
| 20260506102518 | 62 | 247 | 1.0 | 5.0 | 0.16 | 0.23 | 0.20 | 87 | 1007.6 |
| 20260506102503 | 62 | 246 | 1.0 | 5.0 | 0.16 | 0.23 | 0.20 | 87 | 1007.6 |
| 20260506102403 | 62 | 232 | 1.0 | 5.0 | 0.16 | 0.23 | 0.20 | 87 | 1007.5 |
| 20260506102317 | 63 | 220 | 1.0 | 5.0 | 0.16 | 0.23 | 0.20 | 87 | 1007.5 |
| 20260506102218 | 63 | 232 | 1.0 | 5.0 | 0.16 | 0.23 | 0.20 | 87 | 1007.3 |
| 20260506102203 | 63 | 229 | 1.0 | 5.0 | 0.16 | 0.23 | 0.20 | 87 | 1007.3 |
| 20260506101903 | 64 | 262 | 1.0 | 5.0 | 0.17 | 0.23 | 0.20 | 88 | 1007.2 |
| 20260506101803 | 64 | 261 | 1.0 | 5.0 | 0.17 | 0.23 | 0.20 | 88 | 1007.2 |
| 20260506101604 | 64 | 279 | 2.0 | 5.0 | 0.18 | 0.23 | 0.20 | 89 | 1007.2 |
| 20260506101503 | 64 | 291 | 2.0 | 5.0 | 0.18 | 0.23 | 0.20 | 89 | 1007.1 |
| 20260506101404 | 64 | 297 | 1.0 | 5.0 | 0.18 | 0.23 | 0.20 | 89 | 1007.2 |
| 20260506101303 | 65 | 301 | 1.0 | 5.0 | 0.18 | 0.23 | 0.20 | 89 | 1007.2 |
| 20260506101203 | 65 | 299 | 1.0 | 5.0 | 0.18 | 0.23 | 0.20 | 90 | 1007.4 |
| 20260506101116 | 65 | 298 | 1.0 | 5.0 | 0.18 | 0.23 | 0.20 | 90 | 1007.4 |
| 20260506101103 | 65 | 297 | 1.0 | 5.0 | 0.18 | 0.23 | 0.20 | 90 | 1007.3 |
| 20260506101017 | 65 | 299 | 1.0 | 5.0 | 0.19 | 0.23 | 0.20 | 90 | 1007.3 |
| 20260506101003 | 65 | 300 | 1.0 | 5.0 | 0.19 | 0.23 | 0.20 | 90 | 1007.3 |
| 20260506100717 | 66 | 313 | 0.0 | 5.0 | 0.19 | 0.23 | 0.20 | 91 | 1007.1 |
| 20260506100703 | 66 | 319 | 0.0 | 3.0 | 0.19 | 0.23 | 0.20 | 91 | 1007.1 |
| 20260506100603 | 66 | 321 | 0.0 | 3.0 | 0.19 | 0.23 | 0.20 | 91 | 1007.1 |
| 20260506100403 | 66 | 0 | 0.0 | 0.0 | 0.19 | 0.23 | 0.20 | 91 | 1006.9 |
| 20260506100304 | 66 | 0 | 0.0 | 0.0 | 0.19 | 0.23 | 0.20 | 91 | 1006.9 |
| 20260506100203 | 66 | 0 | 0.0 | 0.0 | 0.19 | 0.23 | 0.20 | 91 | 1006.8 |
| 20260506095803 | 66 | 0 | 0.0 | 0.0 | 0.20 | 0.23 | 0.20 | 91 | 1006.9 |
| 20260506095703 | 66 | 0 | 0.0 | 0.0 | 0.20 | 0.23 | 0.20 | 91 | 1006.9 |
| 20260506095604 | 66 | 0 | 0.0 | 0.0 | 0.20 | 0.23 | 0.20 | 91 | 1006.8 |
| 20260506095505 | 66 | 0 | 0.0 | 0.0 | 0.20 | 0.23 | 0.20 | 91 | 1006.8 |
| 20260506095305 | 66 | 0 | 0.0 | 0.0 | 0.20 | 0.23 | 0.20 | 91 | 1006.6 |
| 20260506095204 | 66 | 0 | 0.0 | 0.0 | 0.20 | 0.23 | 0.20 | 91 | 1006.6 |
| 20260506095104 | 66 | 0 | 0.0 | 0.0 | 0.20 | 0.23 | 0.20 | 91 | 1006.6 |
| 20260506095003 | 66 | 0 | 0.0 | 0.0 | 0.20 | 0.23 | 0.20 | 91 | 1006.6 |
| 20260506094917 | 66 | 0 | 0.0 | 0.0 | 0.19 | 0.22 | 0.20 | 91 | 1006.5 |
| 20260506094903 | 66 | 0 | 0.0 | 0.0 | 0.19 | 0.22 | 0.19 | 91 | 1006.5 |
| 20260506094803 | 66 | 0 | 0.0 | 0.0 | 0.19 | 0.22 | 0.19 | 91 | 1006.4 |
| 20260506094604 | 66 | 0 | 0.0 | 0.0 | 0.19 | 0.22 | 0.19 | 91 | 1006.4 |
| 20260506094504 | 66 | 0 | 0.0 | 0.0 | 0.19 | 0.22 | 0.19 | 91 | 1006.4 |
| 20260506094304 | 66 | 0 | 0.0 | 0.0 | 0.19 | 0.22 | 0.19 | 90 | 1006.6 |
| 20260506094204 | 66 | 0 | 0.0 | 0.0 | 0.18 | 0.21 | 0.18 | 90 | 1006.6 |
| 20260506094103 | 67 | 0 | 0.0 | 0.0 | 0.18 | 0.21 | 0.18 | 90 | 1006.7 |
| 20260506093904 | 67 | 0 | 0.0 | 0.0 | 0.14 | 0.17 | 0.14 | 90 | 1006.8 |
| 20260506093818 | 67 | 0 | 0.0 | 0.0 | 0.13 | 0.16 | 0.14 | 90 | 1007.0 |
| 20260506093804 | 67 | 0 | 0.0 | 0.0 | 0.13 | 0.16 | 0.13 | 90 | 1007.0 |
| 20260506093703 | 67 | 0 | 0.0 | 0.0 | 0.12 | 0.15 | 0.12 | 90 | 1007.0 |
| 20260506093504 | 67 | 0 | 0.0 | 0.0 | 0.10 | 0.13 | 0.10 | 89 | 1006.8 |
| 20260506093403 | 67 | 186 | 0.0 | 1.0 | 0.08 | 0.11 | 0.09 | 89 | 1006.8 |
| 20260506093303 | 67 | 186 | 0.0 | 1.0 | 0.08 | 0.11 | 0.08 | 89 | 1006.9 |
| 20260506093218 | 67 | 186 | 0.0 | 1.0 | 0.07 | 0.10 | 0.07 | 89 | 1006.9 |
| 20260506093103 | 67 | 186 | 0.0 | 1.0 | 0.06 | 0.09 | 0.06 | 89 | 1006.8 |
| 20260506093017 | 67 | 186 | 0.0 | 1.0 | 0.06 | 0.09 | 0.06 | 88 | 1006.8 |
| 20260506092904 | 67 | 186 | 0.0 | 1.0 | 0.05 | 0.08 | 0.05 | 88 | 1006.8 |
| 20260506092704 | 67 | 186 | 0.0 | 1.0 | 0.05 | 0.08 | 0.05 | 88 | 1006.6 |
| 20260506092603 | 67 | 186 | 0.0 | 1.0 | 0.04 | 0.07 | 0.04 | 88 | 1006.4 |
| 20260506092503 | 67 | 186 | 0.0 | 1.0 | 0.04 | 0.07 | 0.04 | 88 | 1006.5 |
| 20260506092403 | 67 | 186 | 0.0 | 1.0 | 0.04 | 0.07 | 0.04 | 88 | 1006.5 |
| 20260506092203 | 67 | 186 | 0.0 | 1.0 | 0.04 | 0.07 | 0.04 | 88 | 1006.7 |
| 20260506092104 | 67 | 186 | 0.0 | 1.0 | 0.04 | 0.07 | 0.04 | 88 | 1006.7 |
| 20260506092003 | 67 | 186 | 0.0 | 1.0 | 0.03 | 0.06 | 0.03 | 87 | 1006.6 |
| 20260506091904 | 68 | 186 | 0.0 | 1.0 | 0.03 | 0.06 | 0.03 | 87 | 1006.6 |
| 20260506091804 | 68 | 186 | 0.0 | 1.0 | 0.03 | 0.06 | 0.03 | 87 | 1006.6 |
| 20260506091703 | 68 | 186 | 0.0 | 1.0 | 0.03 | 0.06 | 0.03 | 86 | 1006.6 |
| 20260506091603 | 68 | 186 | 0.0 | 1.0 | 0.02 | 0.05 | 0.02 | 86 | 1006.6 |
| 20260506091503 | 68 | 186 | 0.0 | 1.0 | 0.02 | 0.05 | 0.02 | 86 | 1006.5 |
| 20260506091403 | 68 | 186 | 0.0 | 2.0 | 0.02 | 0.05 | 0.02 | 86 | 1006.5 |
| 20260506091304 | 68 | 186 | 0.0 | 2.0 | 0.02 | 0.05 | 0.02 | 86 | 1006.5 |
| 20260506091203 | 68 | 186 | 0.0 | 2.0 | 0.02 | 0.05 | 0.02 | 86 | 1006.5 |
| 20260506091003 | 68 | 186 | 0.0 | 2.0 | 0.01 | 0.04 | 0.01 | 85 | 1006.5 |
| 20260506090903 | 68 | 186 | 0.0 | 2.0 | 0.01 | 0.04 | 0.01 | 85 | 1006.5 |
| 20260506090803 | 68 | 186 | 0.0 | 2.0 | 0.01 | 0.04 | 0.01 | 85 | 1006.5 |
| 20260506090703 | 68 | 186 | 0.0 | 2.0 | 0.01 | 0.04 | 0.01 | 85 | 1006.4 |
| 20260506090617 | 68 | 186 | 1.0 | 2.0 | 0.01 | 0.04 | 0.01 | 85 | 1006.4 |
| 20260506090603 | 68 | 186 | 1.0 | 2.0 | 0.01 | 0.04 | 0.01 | 84 | 1006.4 |
| 20260506090503 | 68 | 186 | 1.0 | 2.0 | 0.01 | 0.04 | 0.01 | 84 | 1006.3 |
| 20260506090204 | 69 | 198 | 1.0 | 5.0 | 0.01 | 0.04 | 0.01 | 83 | 1006.4 |
| 20260506090118 | 69 | 233 | 1.0 | 5.0 | 0.01 | 0.04 | 0.01 | 83 | 1006.4 |
| 20260506090017 | 69 | 240 | 1.0 | 5.0 | 0.01 | 0.04 | 0.01 | 83 | 1006.2 |
| 20260506090004 | 69 | 241 | 1.0 | 5.0 | 0.01 | 0.04 | 0.01 | 82 | 1006.2 |
| 20260506085716 | 69 | 267 | 1.0 | 5.0 | 0.00 | 0.03 | 0.00 | 82 | 1006.1 |
| 20260506085704 | 69 | 270 | 1.0 | 5.0 | 0.00 | 0.03 | 0.00 | 82 | 1006.1 |
| 20260506085603 | 69 | 288 | 0.0 | 5.0 | 0.00 | 0.03 | 0.00 | 82 | 1006.1 |
| 20260506085404 | 69 | 311 | 0.0 | 5.0 | 0.00 | 0.03 | 0.00 | 82 | 1005.9 |
| 20260506085305 | 69 | 312 | 1.0 | 5.0 | 0.00 | 0.03 | 0.00 | 81 | 1005.9 |
| 20260506085203 | 69 | 314 | 0.0 | 4.0 | 0.00 | 0.03 | 0.00 | 81 | 1005.9 |
| 20260506085104 | 69 | 321 | 1.0 | 2.0 | 0.00 | 0.03 | 0.00 | 81 | 1005.9 |
| 20260506085003 | 69 | 321 | 1.0 | 3.0 | 0.00 | 0.03 | 0.00 | 81 | 1005.8 |
| 20260506084904 | 69 | 321 | 1.0 | 3.0 | 0.00 | 0.03 | 0.00 | 80 | 1005.7 |
| 20260506084803 | 69 | 321 | 1.0 | 3.0 | 0.00 | 0.03 | 0.00 | 80 | 1005.7 |
| 20260506084704 | 69 | 318 | 1.0 | 3.0 | 0.00 | 0.03 | 0.00 | 80 | 1005.6 |
| 20260506084603 | 69 | 316 | 1.0 | 3.0 | 0.00 | 0.03 | 0.00 | 80 | 1005.6 |
| 20260506084504 | 69 | 306 | 1.0 | 3.0 | 0.00 | 0.03 | 0.00 | 80 | 1005.6 |
| 20260506084404 | 69 | 301 | 1.0 | 3.0 | 0.00 | 0.03 | 0.00 | 80 | 1005.6 |
| 20260506084303 | 69 | 274 | 1.0 | 3.0 | 0.00 | 0.03 | 0.00 | 80 | 1005.6 |
| 20260506084203 | 69 | 213 | 1.0 | 3.0 | 0.00 | 0.03 | 0.00 | 79 | 1005.4 |
| 20260506084104 | 69 | 189 | 1.0 | 3.0 | 0.00 | 0.03 | 0.00 | 79 | 1005.3 |
| 20260506084003 | 69 | 175 | 1.0 | 3.0 | 0.00 | 0.03 | 0.00 | 79 | 1005.3 |
| 20260506083903 | 69 | 172 | 1.0 | 3.0 | 0.00 | 0.03 | 0.00 | 79 | 1005.3 |
| 20260506083818 | 69 | 169 | 1.0 | 3.0 | 0.00 | 0.03 | 0.00 | 79 | 1005.3 |
| 20260506083804 | 69 | 167 | 1.0 | 3.0 | 0.00 | 0.03 | 0.00 | 79 | 1005.3 |
| 20260506083703 | 69 | 165 | 1.0 | 3.0 | 0.00 | 0.03 | 0.00 | 79 | 1005.2 |
| 20260506083504 | 70 | 170 | 1.0 | 4.0 | 0.00 | 0.03 | 0.00 | 79 | 1005.2 |
| 20260506083403 | 70 | 174 | 1.0 | 4.0 | 0.00 | 0.03 | 0.00 | 79 | 1005.1 |
| 20260506083317 | 70 | 174 | 1.0 | 4.0 | 0.00 | 0.03 | 0.00 | 79 | 1005.1 |
| 20260506083203 | 70 | 176 | 1.0 | 4.0 | 0.00 | 0.03 | 0.00 | 79 | 1005.0 |
| 20260506083118 | 70 | 177 | 1.0 | 4.0 | 0.00 | 0.03 | 0.00 | 79 | 1005.0 |
| 20260506083003 | 70 | 173 | 1.0 | 4.0 | 0.00 | 0.03 | 0.00 | 78 | 1005.0 |
| 20260506082803 | 70 | 175 | 1.0 | 4.0 | 0.00 | 0.03 | 0.00 | 78 | 1004.7 |
| 20260506082704 | 70 | 173 | 1.0 | 4.0 | 0.00 | 0.03 | 0.00 | 78 | 1004.7 |
| 20260506082604 | 70 | 169 | 1.0 | 4.0 | 0.00 | 0.03 | 0.00 | 78 | 1004.7 |
| 20260506082503 | 70 | 167 | 1.0 | 7.0 | 0.00 | 0.03 | 0.00 | 77 | 1004.7 |
| 20260506082403 | 70 | 164 | 1.0 | 7.0 | 0.00 | 0.03 | 0.00 | 77 | 1004.8 |
| 20260506082305 | 70 | 164 | 1.0 | 7.0 | 0.00 | 0.03 | 0.00 | 76 | 1004.8 |
| 20260506082204 | 70 | 167 | 1.0 | 7.0 | 0.00 | 0.03 | 0.00 | 76 | 1004.8 |
| 20260506082103 | 70 | 168 | 2.0 | 7.0 | 0.00 | 0.03 | 0.00 | 76 | 1004.8 |
| 20260506082003 | 70 | 170 | 2.0 | 7.0 | 0.00 | 0.03 | 0.00 | 76 | 1004.8 |
| 20260506081904 | 70 | 172 | 2.0 | 7.0 | 0.00 | 0.03 | 0.00 | 75 | 1004.8 |
| 20260506081803 | 70 | 174 | 2.0 | 7.0 | 0.00 | 0.03 | 0.00 | 75 | 1004.8 |
| 20260506081704 | 70 | 175 | 2.0 | 7.0 | 0.00 | 0.03 | 0.00 | 75 | 1004.8 |
| 20260506081604 | 70 | 179 | 2.0 | 7.0 | 0.00 | 0.03 | 0.00 | 75 | 1004.7 |
| 20260506081503 | 70 | 178 | 2.0 | 6.0 | 0.00 | 0.03 | 0.00 | 74 | 1004.7 |
| 20260506081403 | 70 | 177 | 2.0 | 6.0 | 0.00 | 0.03 | 0.00 | 74 | 1004.8 |
| 20260506081304 | 70 | 175 | 2.0 | 6.0 | 0.00 | 0.03 | 0.00 | 74 | 1004.7 |
| 20260506081217 | 70 | 172 | 2.0 | 6.0 | 0.00 | 0.03 | 0.00 | 74 | 1004.7 |
| 20260506081117 | 70 | 169 | 2.0 | 6.0 | 0.00 | 0.03 | 0.00 | 74 | 1004.6 |
| 20260506081103 | 70 | 170 | 2.0 | 6.0 | 0.00 | 0.03 | 0.00 | 74 | 1004.6 |
| 20260506080804 | 70 | 169 | 2.0 | 6.0 | 0.00 | 0.03 | 0.00 | 74 | 1004.4 |
| 20260506080703 | 70 | 170 | 2.0 | 6.0 | 0.00 | 0.03 | 0.00 | 74 | 1004.4 |
| 20260506080604 | 70 | 165 | 2.0 | 6.0 | 0.00 | 0.03 | 0.00 | 74 | 1004.2 |
| 20260506080503 | 70 | 167 | 1.0 | 6.0 | 0.00 | 0.03 | 0.00 | 74 | 1004.2 |
| 20260506080404 | 70 | 166 | 2.0 | 6.0 | 0.00 | 0.03 | 0.00 | 74 | 1004.2 |
| 20260506080303 | 70 | 168 | 2.0 | 6.0 | 0.00 | 0.03 | 0.00 | 74 | 1004.4 |
| 20260506080203 | 70 | 169 | 1.0 | 6.0 | 0.00 | 0.03 | 0.00 | 73 | 1004.4 |
| 20260506073503 | 70 | 146 | 2.0 | 8.0 | 0.00 | 0.03 | 0.00 | 72 | 1004.2 |
| 20260506073318 | 70 | 143 | 2.0 | 8.0 | 0.00 | 0.03 | 0.00 | 72 | 1004.3 |
| 20260506073304 | 70 | 145 | 2.0 | 8.0 | 0.00 | 0.03 | 0.00 | 72 | 1004.3 |
| 20260506073203 | 70 | 148 | 2.0 | 8.0 | 0.00 | 0.03 | 0.00 | 72 | 1004.5 |
| 20260506073003 | 70 | 146 | 2.0 | 8.0 | 0.00 | 0.03 | 0.00 | 73 | 1004.5 |
| 20260506072904 | 70 | 146 | 2.0 | 8.0 | 0.00 | 0.03 | 0.00 | 72 | 1004.5 |
| 20260506072804 | 70 | 149 | 2.0 | 8.0 | 0.00 | 0.03 | 0.00 | 72 | 1004.5 |
| 20260506072704 | 70 | 150 | 2.0 | 6.0 | 0.00 | 0.03 | 0.00 | 73 | 1004.5 |
| 20260506072604 | 70 | 150 | 2.0 | 4.0 | 0.00 | 0.03 | 0.00 | 72 | 1004.5 |
| 20260506072503 | 70 | 144 | 2.0 | 4.0 | 0.00 | 0.03 | 0.00 | 72 | 1004.5 |
| 20260506072403 | 70 | 142 | 2.0 | 4.0 | 0.00 | 0.03 | 0.00 | 72 | 1004.4 |
| 20260506072318 | 70 | 150 | 2.0 | 4.0 | 0.00 | 0.03 | 0.00 | 72 | 1004.4 |
| 20260506072305 | 70 | 153 | 2.0 | 6.0 | 0.00 | 0.03 | 0.00 | 72 | 1004.4 |
| 20260506072203 | 70 | 158 | 2.0 | 6.0 | 0.00 | 0.03 | 0.00 | 72 | 1004.5 |
| 20260506072004 | 70 | 150 | 2.0 | 6.0 | 0.00 | 0.03 | 0.00 | 72 | 1004.4 |
| 20260506071903 | 70 | 152 | 2.0 | 6.0 | 0.00 | 0.03 | 0.00 | 72 | 1004.5 |
| 20260506071804 | 70 | 140 | 2.0 | 6.0 | 0.00 | 0.03 | 0.00 | 72 | 1004.5 |
| 20260506071703 | 70 | 130 | 1.0 | 6.0 | 0.00 | 0.03 | 0.00 | 72 | 1004.5 |
| 20260506071604 | 70 | 121 | 2.0 | 6.0 | 0.00 | 0.03 | 0.00 | 72 | 1004.4 |
| 20260506071517 | 70 | 122 | 2.0 | 6.0 | 0.00 | 0.03 | 0.00 | 72 | 1004.4 |
| 20260506071503 | 70 | 124 | 2.0 | 6.0 | 0.00 | 0.03 | 0.00 | 72 | 1004.4 |
| 20260506071403 | 70 | 150 | 1.0 | 6.0 | 0.00 | 0.03 | 0.00 | 72 | 1004.4 |
| 20260506071318 | 70 | 143 | 1.0 | 6.0 | 0.00 | 0.03 | 0.00 | 72 | 1004.4 |
| 20260506071204 | 70 | 140 | 1.0 | 4.0 | 0.00 | 0.03 | 0.00 | 72 | 1004.2 |
| 20260506071018 | 70 | 163 | 1.0 | 4.0 | 0.00 | 0.03 | 0.00 | 72 | 1004.2 |
| 20260506071003 | 70 | 160 | 1.0 | 4.0 | 0.00 | 0.03 | 0.00 | 72 | 1004.2 |
| 20260506070916 | 70 | 151 | 1.0 | 4.0 | 0.00 | 0.03 | 0.00 | 72 | 1004.1 |
| 20260506070903 | 71 | 156 | 1.0 | 4.0 | 0.00 | 0.03 | 0.00 | 72 | 1004.1 |
| 20260506070817 | 70 | 163 | 1.0 | 4.0 | 0.00 | 0.03 | 0.00 | 72 | 1004.1 |
| 20260506070718 | 70 | 169 | 1.0 | 4.0 | 0.00 | 0.03 | 0.00 | 72 | 1004.2 |
| 20260506070403 | 71 | 155 | 1.0 | 10.0 | 0.00 | 0.03 | 0.00 | 71 | 1004.2 |
| 20260506070303 | 71 | 137 | 2.0 | 10.0 | 0.00 | 0.03 | 0.00 | 71 | 1004.2 |
| 20260506070203 | 71 | 134 | 2.0 | 10.0 | 0.00 | 0.03 | 0.00 | 71 | 1004.2 |
| 20260506070103 | 70 | 140 | 2.0 | 10.0 | 0.00 | 0.03 | 0.00 | 71 | 1004.2 |
| 20260506062505 | 70 | 192 | 1.0 | 4.0 | 0.00 | 0.03 | 0.00 | 70 | 1004.8 |
| 20260506062305 | 71 | 191 | 1.0 | 4.0 | 0.00 | 0.03 | 0.00 | 70 | 1004.8 |
| 20260506062203 | 71 | 193 | 1.0 | 4.0 | 0.00 | 0.03 | 0.00 | 70 | 1004.9 |
| 20260506062104 | 70 | 195 | 1.0 | 4.0 | 0.00 | 0.03 | 0.00 | 70 | 1004.9 |
| 20260506062004 | 70 | 194 | 1.0 | 4.0 | 0.00 | 0.03 | 0.00 | 70 | 1004.8 |
| 20260506061903 | 70 | 198 | 1.0 | 4.0 | 0.00 | 0.03 | 0.00 | 70 | 1004.8 |
| 20260506061803 | 71 | 202 | 1.0 | 4.0 | 0.00 | 0.03 | 0.00 | 70 | 1004.8 |
| 20260506061703 | 70 | 202 | 1.0 | 4.0 | 0.00 | 0.03 | 0.00 | 70 | 1004.9 |
| 20260506061603 | 70 | 197 | 1.0 | 4.0 | 0.00 | 0.03 | 0.00 | 70 | 1004.9 |
| 20260506061504 | 71 | 190 | 1.0 | 4.0 | 0.00 | 0.03 | 0.00 | 70 | 1004.9 |
| 20260506061403 | 70 | 192 | 1.0 | 4.0 | 0.00 | 0.03 | 0.00 | 70 | 1005.0 |
| 20260506061304 | 70 | 195 | 1.0 | 4.0 | 0.00 | 0.03 | 0.00 | 70 | 1005.0 |
| 20260506061203 | 70 | 196 | 1.0 | 4.0 | 0.00 | 0.03 | 0.00 | 70 | 1005.1 |
| 20260506061104 | 70 | 188 | 2.0 | 7.0 | 0.00 | 0.03 | 0.00 | 70 | 1005.1 |
| 20260506061003 | 70 | 194 | 1.0 | 7.0 | 0.00 | 0.03 | 0.00 | 70 | 1005.0 |
| 20260506060903 | 70 | 193 | 2.0 | 7.0 | 0.00 | 0.03 | 0.00 | 70 | 1005.0 |
| 20260506060804 | 70 | 183 | 2.0 | 7.0 | 0.00 | 0.03 | 0.00 | 70 | 1005.0 |
| 20260506060717 | 70 | 189 | 2.0 | 7.0 | 0.00 | 0.03 | 0.00 | 70 | 1005.2 |
| 20260506060703 | 70 | 190 | 2.0 | 7.0 | 0.00 | 0.03 | 0.00 | 70 | 1005.2 |
| 20260506060604 | 70 | 193 | 2.0 | 7.0 | 0.00 | 0.03 | 0.00 | 70 | 1005.2 |
| 20260506060403 | 70 | 198 | 2.0 | 9.0 | 0.00 | 0.03 | 0.00 | 70 | 1005.2 |
| 20260506060303 | 70 | 190 | 2.0 | 9.0 | 0.00 | 0.03 | 0.00 | 70 | 1005.2 |
| 20260506060204 | 70 | 181 | 2.0 | 9.0 | 0.00 | 0.03 | 0.00 | 70 | 1005.1 |
| 20260506060104 | 70 | 175 | 2.0 | 9.0 | 0.00 | 0.03 | 0.00 | 70 | 1005.1 |
| 20260506051403 | 70 | 197 | 2.0 | 7.0 | 0.00 | 0.03 | 0.00 | 70 | 1005.8 |
| 20260506051303 | 70 | 197 | 2.0 | 8.0 | 0.00 | 0.03 | 0.00 | 70 | 1005.6 |
| 20260506051204 | 70 | 201 | 2.0 | 8.0 | 0.00 | 0.03 | 0.00 | 70 | 1005.6 |
| 20260506051103 | 70 | 207 | 2.0 | 8.0 | 0.00 | 0.03 | 0.00 | 70 | 1005.7 |
| 20260506051004 | 70 | 201 | 2.0 | 8.0 | 0.00 | 0.03 | 0.00 | 69 | 1005.7 |
| 20260506050903 | 70 | 196 | 2.0 | 8.0 | 0.00 | 0.03 | 0.00 | 70 | 1005.7 |
| 20260506050818 | 70 | 192 | 2.0 | 8.0 | 0.00 | 0.03 | 0.00 | 70 | 1005.6 |
| 20260506050804 | 70 | 191 | 2.0 | 8.0 | 0.00 | 0.03 | 0.00 | 70 | 1005.6 |
| 20260506050703 | 70 | 189 | 2.0 | 8.0 | 0.00 | 0.03 | 0.00 | 70 | 1005.6 |
| 20260506050620 | 70 | 187 | 2.0 | 8.0 | 0.00 | 0.03 | 0.00 | 70 | 1005.6 |
| 20260506050504 | 70 | 183 | 2.0 | 8.0 | 0.00 | 0.03 | 0.00 | 70 | 1005.7 |
| 20260506050303 | 70 | 197 | 2.0 | 6.0 | 0.00 | 0.03 | 0.00 | 70 | 1005.8 |
| 20260506050204 | 70 | 197 | 2.0 | 6.0 | 0.00 | 0.03 | 0.00 | 70 | 1005.8 |
| 20260506050103 | 70 | 203 | 1.0 | 6.0 | 0.00 | 0.03 | 0.00 | 70 | 1005.8 |
| 20260506045103 | 70 | 164 | 2.0 | 6.0 | 0.00 | 0.03 | 0.03 | 70 | 1005.8 |
| 20260506045003 | 70 | 156 | 2.0 | 6.0 | 0.00 | 0.03 | 0.03 | 70 | 1005.8 |
| 20260506044904 | 70 | 155 | 2.0 | 7.0 | 0.00 | 0.03 | 0.03 | 70 | 1005.9 |
| 20260506044804 | 70 | 152 | 2.0 | 7.0 | 0.00 | 0.03 | 0.03 | 70 | 1005.9 |
| 20260506044704 | 70 | 150 | 2.0 | 7.0 | 0.00 | 0.03 | 0.03 | 70 | 1005.9 |
| 20260506044604 | 70 | 153 | 2.0 | 7.0 | 0.00 | 0.03 | 0.03 | 71 | 1006.0 |
| 20260506044503 | 70 | 149 | 1.0 | 7.0 | 0.00 | 0.03 | 0.03 | 70 | 1006.0 |
| 20260506044404 | 70 | 152 | 1.0 | 7.0 | 0.00 | 0.03 | 0.03 | 70 | 1006.0 |
| 20260506044303 | 70 | 157 | 2.0 | 7.0 | 0.00 | 0.03 | 0.03 | 70 | 1006.0 |
| 20260506044203 | 70 | 162 | 2.0 | 8.0 | 0.00 | 0.03 | 0.03 | 70 | 1006.0 |
| 20260506044104 | 70 | 161 | 2.0 | 9.0 | 0.00 | 0.03 | 0.03 | 70 | 1005.9 |
| 20260506043903 | 70 | 171 | 2.0 | 9.0 | 0.00 | 0.03 | 0.03 | 70 | 1006.0 |
| 20260506043818 | 70 | 180 | 2.0 | 9.0 | 0.00 | 0.03 | 0.03 | 70 | 1005.9 |
| 20260506043803 | 70 | 181 | 2.0 | 9.0 | 0.00 | 0.03 | 0.03 | 70 | 1005.9 |
| 20260506043518 | 70 | 190 | 2.0 | 9.0 | 0.00 | 0.03 | 0.03 | 70 | 1005.9 |
| 20260506043503 | 70 | 191 | 2.0 | 9.0 | 0.00 | 0.03 | 0.03 | 70 | 1005.9 |
| 20260506043404 | 70 | 200 | 2.0 | 9.0 | 0.00 | 0.03 | 0.03 | 70 | 1005.8 |
| 20260506043218 | 70 | 214 | 1.0 | 9.0 | 0.00 | 0.03 | 0.03 | 71 | 1006.0 |
| 20260506043204 | 70 | 219 | 1.0 | 9.0 | 0.00 | 0.03 | 0.03 | 71 | 1006.0 |
| 20260506043103 | 70 | 216 | 1.0 | 4.0 | 0.00 | 0.03 | 0.03 | 71 | 1006.1 |
| 20260506042904 | 70 | 204 | 1.0 | 4.0 | 0.00 | 0.03 | 0.03 | 71 | 1006.1 |
| 20260506042804 | 70 | 195 | 1.0 | 4.0 | 0.00 | 0.03 | 0.03 | 71 | 1006.0 |
| 20260506042703 | 70 | 199 | 1.0 | 4.0 | 0.00 | 0.03 | 0.03 | 71 | 1006.0 |
| 20260506042619 | 70 | 210 | 1.0 | 4.0 | 0.00 | 0.03 | 0.03 | 71 | 1006.0 |
| 20260506042603 | 70 | 209 | 1.0 | 4.0 | 0.00 | 0.03 | 0.03 | 71 | 1006.0 |
| 20260506042503 | 70 | 203 | 1.0 | 4.0 | 0.00 | 0.03 | 0.03 | 71 | 1005.9 |
| 20260506042319 | 70 | 208 | 1.0 | 4.0 | 0.00 | 0.03 | 0.03 | 71 | 1006.1 |
| 20260506042305 | 70 | 211 | 1.0 | 4.0 | 0.00 | 0.03 | 0.03 | 71 | 1006.1 |
| 20260506042203 | 70 | 212 | 1.0 | 4.0 | 0.00 | 0.03 | 0.03 | 71 | 1006.1 |
| 20260506042004 | 70 | 216 | 1.0 | 3.0 | 0.00 | 0.03 | 0.03 | 71 | 1005.8 |
| 20260506041904 | 70 | 247 | 1.0 | 3.0 | 0.00 | 0.03 | 0.03 | 71 | 1005.8 |
| 20260506041804 | 69 | 221 | 1.0 | 4.0 | 0.00 | 0.03 | 0.03 | 71 | 1006.0 |
| 20260506041704 | 69 | 210 | 1.0 | 4.0 | 0.00 | 0.03 | 0.03 | 71 | 1006.0 |
| 20260506041603 | 69 | 198 | 1.0 | 4.0 | 0.00 | 0.03 | 0.03 | 71 | 1006.0 |
| 20260506041518 | 69 | 203 | 1.0 | 4.0 | 0.00 | 0.03 | 0.03 | 71 | 1006.1 |
| 20260506041503 | 69 | 201 | 1.0 | 4.0 | 0.00 | 0.03 | 0.03 | 71 | 1006.1 |
| 20260506041404 | 69 | 195 | 1.0 | 4.0 | 0.00 | 0.03 | 0.03 | 71 | 1006.1 |
| 20260506041204 | 69 | 180 | 1.0 | 4.0 | 0.00 | 0.03 | 0.03 | 71 | 1006.1 |
| 20260506041104 | 69 | 179 | 2.0 | 4.0 | 0.00 | 0.03 | 0.03 | 71 | 1006.1 |
| 20260506041003 | 69 | 180 | 2.0 | 8.0 | 0.00 | 0.03 | 0.03 | 71 | 1006.1 |
| 20260506040917 | 69 | 178 | 2.0 | 8.0 | 0.00 | 0.03 | 0.03 | 71 | 1006.1 |
| 20260506040903 | 69 | 179 | 2.0 | 8.0 | 0.00 | 0.03 | 0.03 | 71 | 1006.1 |
| 20260506040803 | 69 | 181 | 2.0 | 8.0 | 0.00 | 0.03 | 0.03 | 71 | 1006.3 |
| 20260506040603 | 69 | 186 | 1.0 | 8.0 | 0.00 | 0.03 | 0.03 | 72 | 1006.2 |
| 20260506040504 | 69 | 186 | 1.0 | 8.0 | 0.00 | 0.03 | 0.03 | 72 | 1006.3 |
| 20260506040403 | 69 | 187 | 1.0 | 8.0 | 0.00 | 0.03 | 0.03 | 72 | 1006.3 |
| 20260506040303 | 69 | 189 | 1.0 | 8.0 | 0.00 | 0.03 | 0.03 | 72 | 1006.3 |
| 20260506040203 | 69 | 199 | 2.0 | 10.0 | 0.00 | 0.03 | 0.03 | 72 | 1006.3 |
| 20260506040005 | 69 | 212 | 1.0 | 10.0 | 0.00 | 0.03 | 0.03 | 72 | 1006.4 |
| 20260506035903 | 69 | 217 | 1.0 | 10.0 | 0.00 | 0.03 | 0.03 | 72 | 1006.3 |
| 20260506035703 | 69 | 193 | 1.0 | 10.0 | 0.00 | 0.03 | 0.03 | 72 | 1006.4 |
| 20260506035617 | 69 | 189 | 1.0 | 10.0 | 0.00 | 0.03 | 0.03 | 72 | 1006.4 |
| 20260506035604 | 69 | 187 | 1.0 | 10.0 | 0.00 | 0.03 | 0.03 | 72 | 1006.4 |
| 20260506035504 | 69 | 178 | 1.0 | 10.0 | 0.00 | 0.03 | 0.03 | 72 | 1006.3 |
| 20260506035305 | 69 | 178 | 1.0 | 10.0 | 0.00 | 0.03 | 0.03 | 72 | 1006.2 |
| 20260506035203 | 69 | 168 | 1.0 | 6.0 | 0.00 | 0.03 | 0.03 | 73 | 1006.3 |
| 20260506035118 | 69 | 160 | 1.0 | 6.0 | 0.00 | 0.03 | 0.03 | 73 | 1006.3 |
| 20260506035104 | 69 | 161 | 1.0 | 6.0 | 0.00 | 0.03 | 0.03 | 73 | 1006.3 |
| 20260506035003 | 69 | 164 | 1.0 | 6.0 | 0.00 | 0.03 | 0.03 | 73 | 1006.3 |
| 20260506034703 | 69 | 179 | 1.0 | 6.0 | 0.00 | 0.03 | 0.03 | 72 | 1006.4 |
| 20260506034603 | 69 | 181 | 1.0 | 6.0 | 0.00 | 0.03 | 0.03 | 73 | 1006.4 |
| 20260506034503 | 69 | 182 | 1.0 | 6.0 | 0.00 | 0.03 | 0.03 | 73 | 1006.3 |
| 20260506034403 | 69 | 172 | 1.0 | 4.0 | 0.00 | 0.03 | 0.03 | 73 | 1006.3 |
| 20260506034303 | 69 | 179 | 1.0 | 4.0 | 0.00 | 0.03 | 0.03 | 73 | 1006.3 |
| 20260506034203 | 69 | 176 | 1.0 | 4.0 | 0.00 | 0.03 | 0.03 | 73 | 1006.4 |
| 20260506034103 | 69 | 178 | 1.0 | 4.0 | 0.00 | 0.03 | 0.03 | 73 | 1006.4 |
| 20260506034003 | 69 | 178 | 1.0 | 4.0 | 0.00 | 0.03 | 0.03 | 73 | 1006.4 |
| 20260506033903 | 69 | 178 | 1.0 | 4.0 | 0.00 | 0.03 | 0.03 | 73 | 1006.4 |
| 20260506033803 | 69 | 180 | 1.0 | 4.0 | 0.00 | 0.03 | 0.03 | 73 | 1006.4 |
| 20260506033703 | 69 | 180 | 1.0 | 4.0 | 0.00 | 0.03 | 0.03 | 73 | 1006.4 |
| 20260506033604 | 69 | 180 | 1.0 | 4.0 | 0.00 | 0.03 | 0.03 | 73 | 1006.4 |
| 20260506033503 | 68 | 180 | 1.0 | 4.0 | 0.00 | 0.03 | 0.03 | 73 | 1006.4 |
| 20260506033404 | 68 | 178 | 1.0 | 4.0 | 0.00 | 0.03 | 0.03 | 73 | 1006.4 |
| 20260506033220 | 68 | 176 | 2.0 | 4.0 | 0.00 | 0.03 | 0.03 | 74 | 1006.4 |
| 20260506033203 | 68 | 177 | 2.0 | 4.0 | 0.00 | 0.03 | 0.03 | 74 | 1006.4 |
| 20260506033103 | 68 | 184 | 2.0 | 4.0 | 0.00 | 0.03 | 0.03 | 74 | 1006.4 |
| 20260506032903 | 68 | 203 | 2.0 | 4.0 | 0.00 | 0.03 | 0.03 | 74 | 1006.4 |
| 20260506032803 | 68 | 206 | 2.0 | 4.0 | 0.00 | 0.03 | 0.03 | 74 | 1006.4 |
| 20260506032703 | 68 | 242 | 2.0 | 5.0 | 0.00 | 0.03 | 0.03 | 74 | 1006.4 |
| 20260506032603 | 68 | 274 | 2.0 | 5.0 | 0.00 | 0.03 | 0.03 | 73 | 1006.4 |
| 20260506032503 | 68 | 284 | 2.0 | 5.0 | 0.00 | 0.03 | 0.03 | 74 | 1006.4 |
| 20260506032403 | 68 | 288 | 2.0 | 5.0 | 0.00 | 0.03 | 0.03 | 74 | 1006.4 |
| 20260506032317 | 68 | 276 | 2.0 | 5.0 | 0.00 | 0.03 | 0.03 | 74 | 1006.4 |
| 20260506032305 | 68 | 279 | 2.0 | 5.0 | 0.00 | 0.03 | 0.03 | 74 | 1006.5 |
| 20260506032203 | 68 | 265 | 1.0 | 5.0 | 0.00 | 0.03 | 0.03 | 74 | 1006.5 |
| 20260506032118 | 68 | 250 | 1.0 | 5.0 | 0.00 | 0.03 | 0.03 | 74 | 1006.5 |
| 20260506032017 | 68 | 226 | 1.0 | 5.0 | 0.00 | 0.03 | 0.03 | 74 | 1006.5 |
| 20260506032004 | 68 | 219 | 1.0 | 5.0 | 0.00 | 0.03 | 0.03 | 74 | 1006.5 |
| 20260506031917 | 68 | 208 | 1.0 | 5.0 | 0.00 | 0.03 | 0.03 | 74 | 1006.4 |
| 20260506031818 | 68 | 194 | 1.0 | 5.0 | 0.00 | 0.03 | 0.03 | 74 | 1006.4 |
| 20260506031619 | 68 | 179 | 1.0 | 4.0 | 0.00 | 0.03 | 0.03 | 75 | 1006.4 |
| 20260506031517 | 68 | 175 | 1.0 | 4.0 | 0.00 | 0.03 | 0.03 | 75 | 1006.4 |
| 20260506031503 | 68 | 165 | 1.0 | 4.0 | 0.00 | 0.03 | 0.03 | 75 | 1006.4 |
| 20260506031317 | 68 | 151 | 1.0 | 4.0 | 0.00 | 0.03 | 0.03 | 75 | 1006.4 |
| 20260506031204 | 67 | 149 | 1.0 | 4.0 | 0.00 | 0.03 | 0.03 | 76 | 1006.4 |
| 20260506031004 | 67 | 142 | 1.0 | 4.0 | 0.00 | 0.03 | 0.03 | 76 | 1006.5 |
| 20260506030903 | 67 | 135 | 1.0 | 4.0 | 0.00 | 0.03 | 0.03 | 76 | 1006.5 |
| 20260506030804 | 67 | 129 | 1.0 | 5.0 | 0.00 | 0.03 | 0.03 | 76 | 1006.5 |
| 20260506030704 | 67 | 142 | 2.0 | 5.0 | 0.00 | 0.03 | 0.03 | 76 | 1006.5 |
| 20260506030503 | 67 | 164 | 2.0 | 5.0 | 0.00 | 0.03 | 0.03 | 77 | 1006.6 |
| 20260506030403 | 67 | 165 | 2.0 | 5.0 | 0.00 | 0.03 | 0.03 | 77 | 1006.6 |
| 20260506030304 | 67 | 163 | 1.0 | 5.0 | 0.00 | 0.03 | 0.03 | 77 | 1006.6 |
| 20260506030204 | 67 | 162 | 1.0 | 5.0 | 0.00 | 0.03 | 0.03 | 77 | 1006.6 |
| 20260506030103 | 67 | 161 | 1.0 | 5.0 | 0.00 | 0.03 | 0.03 | 77 | 1006.7 |
| 20260506030003 | 67 | 160 | 1.0 | 5.0 | 0.00 | 0.03 | 0.03 | 77 | 1006.6 |
| 20260506025917 | 67 | 163 | 1.0 | 5.0 | 0.00 | 0.03 | 0.03 | 77 | 1006.6 |
| 20260506025904 | 67 | 168 | 1.0 | 5.0 | 0.00 | 0.03 | 0.03 | 77 | 1006.6 |
| 20260506025803 | 66 | 179 | 1.0 | 4.0 | 0.00 | 0.03 | 0.03 | 77 | 1006.4 |
| 20260506025603 | 66 | 169 | 1.0 | 4.0 | 0.00 | 0.03 | 0.03 | 78 | 1006.6 |
| 20260506025503 | 66 | 178 | 1.0 | 4.0 | 0.00 | 0.03 | 0.03 | 78 | 1006.6 |
| 20260506025418 | 66 | 186 | 1.0 | 4.0 | 0.00 | 0.03 | 0.03 | 79 | 1006.6 |
| 20260506025403 | 66 | 184 | 1.0 | 4.0 | 0.00 | 0.03 | 0.03 | 79 | 1006.6 |
| 20260506025316 | 66 | 189 | 1.0 | 4.0 | 0.00 | 0.03 | 0.03 | 79 | 1006.5 |
| 20260506025305 | 66 | 188 | 1.0 | 4.0 | 0.00 | 0.03 | 0.03 | 79 | 1006.5 |
| 20260506025219 | 66 | 179 | 1.0 | 4.0 | 0.00 | 0.03 | 0.03 | 79 | 1006.5 |
| 20260506024903 | 66 | 165 | 1.0 | 3.0 | 0.01 | 0.03 | 0.03 | 79 | 1006.3 |
| 20260506024804 | 66 | 160 | 1.0 | 3.0 | 0.01 | 0.03 | 0.03 | 79 | 1006.4 |
| 20260506024704 | 66 | 154 | 1.0 | 3.0 | 0.01 | 0.03 | 0.03 | 79 | 1006.4 |
| 20260506024603 | 66 | 153 | 1.0 | 3.0 | 0.01 | 0.03 | 0.03 | 79 | 1006.4 |
| 20260506024503 | 66 | 150 | 1.0 | 3.0 | 0.01 | 0.03 | 0.03 | 80 | 1006.5 |
| 20260506024403 | 66 | 153 | 1.0 | 5.0 | 0.01 | 0.03 | 0.03 | 80 | 1006.5 |
| 20260506024304 | 66 | 157 | 1.0 | 5.0 | 0.01 | 0.03 | 0.03 | 80 | 1006.5 |
| 20260506024203 | 65 | 169 | 1.0 | 7.0 | 0.01 | 0.03 | 0.03 | 81 | 1006.6 |